GFSNE_sfc_rhum_000.txt.gz
RH
79 83 84 80 80 84 85 86 91 94 84 73 79 62 60 63 65 64 64 70 77 76 77 73 72 74 74 77 79 81 80 79 76 71 71 71 69 65
65 70 72 74 77 82 88 87 87 91 92 74 70 76 76 78 72 74 73 80 76 78 80 80 78 77 79 79 82 86 86 80 73 72 72 69 66 60
68 67 74 75 79 80 83 84 86 87 93 76 75 74 85 92 85 84 76 78 76 80 77 80 83 82 82 85 88 86 82 75 73 75 70 68 62 62
58 67 73 70 80 80 82 84 84 84 90 89 79 82 83 85 87 85 86 86 85 82 85 82 85 87 86 88 90 89 84 80 77 74 68 63 62 63
62 72 78 80 77 78 81 84 83 81 86 88 86 82 85 85 98 94 90 91 92 90 87 88 88 89 89 92 90 88 88 85 82 76 69 65 64 64
75 82 74 64 67 79 82 85 83 86 84 85 86 82 81 82 98 95 97 95 93 93 90 88 89 91 92 94 94 94 93 88 80 76 70 67 66 65
68 55 60 67 80 81 65 66 77 85 85 88 88 86 89 88 96 94 97 95 97 96 97 95 97 98 98 96 95 94 89 86 86 81 71 66 66 65
50 47 56 60 69 60 62 72 79 88 91 92 91 91 88 89 88 92 96 98 98 98 98 96 98 99 99 98 93 94 91 89 86 75 68 65 66 66
41 43 47 54 63 50 60 68 70 75 80 88 94 88 88 84 90 94 90 97 93 99 96 99 99 99 99 98 94 92 90 88 79 73 68 67 66 64
46 46 59 69 62 63 66 72 70 72 74 77 85 85 84 86 90 94 96 98 99 99 95 99 98 98 98 98 93 91 87 82 79 70 68 67 66 64
49 51 64 65 67 67 68 77 79 78 74 80 84 86 87 88 89 96 98 99 99 99 99 96 99 98 99 99 98 96 91 83 68 64 64 66 66 65
52 56 66 64 65 66 69 78 89 83 85 85 86 86 88 90 95 98 98 99 100 99 98 96 97 96 97 98 99 99 89 67 61 62 63 64 65 82
62 67 62 65 65 69 71 80 87 82 85 91 96 95 97 98 97 99 99 100 100 100 97 95 98 97 97 96 95 88 62 64 70 66 61 65 65 72
71 63 63 67 74 76 71 78 80 84 89 92 97 97 98 97 99 99 100 100 99 98 98 99 98 97 97 94 87 68 71 70 65 65 65 59 60 59
61 68 64 73 67 66 69 75 81 89 94 95 97 98 99 99 99 99 99 98 98 98 98 98 96 98 97 94 85 79 70 74 81 79 81 79 74 70
75 62 69 62 62 64 69 74 84 91 97 97 97 97 98 99 98 98 98 98 97 97 98 97 97 97 95 91 87 90 92 79 88 90 84 80 75 73
59 70 73 70 74 77 76 79 84 88 97 97 98 97 98 98 97 98 98 98 97 97 97 96 94 92 92 95 98 90 92 92 90 93 92 84 80 76
66 78 81 81 84 83 82 88 85 88 96 97 96 97 98 98 97 98 98 98 96 96 96 96 97 93 88 85 86 92 94 93 93 92 89 89 81 77
74 84 82 82 84 83 84 92 90 90 98 97 97 97 98 98 98 97 98 97 97 96 97 97 98 96 92 82 87 79 87 94 94 92 89 86 82 77
78 83 82 81 82 91 87 88 90 94 96 97 97 98 98 98 98 97 97 97 96 96 99 99 100 99 91 87 94 94 79 97 83 72 72 81 78 69
81 79 78 79 83 93 83 88 90 96 96 97 97 98 98 98 98 98 97 92 89 98 100 100 100 90 100 98 94 90 85 68 73 84 91 87 83 86
79 81 79 80 91 87 86 89 94 96 96 97 98 98 98 98 97 97 94 94 93 94 97 99 100 100 100 98 97 96 89 84 79 76 77 82 95 98
84 85 83 87 90 86 88 91 94 96 97 98 98 98 98 97 96 94 95 92 92 96 96 95 98 99 99 98 93 98 97 96 98 98 90 80 78 80

GFSNE_sfc_rhum_003.txt.gz
RH
83 85 85 73 78 82 83 86 89 94 79 64 68 62 71 76 79 75 74 78 83 81 82 81 77 76 74 73 73 74 76 78 81 84 85 81 77 72
61 66 68 71 78 83 87 85 86 91 93 72 69 75 78 79 78 82 74 81 83 84 84 85 83 82 80 77 76 76 77 78 80 84 84 80 77 74
58 63 68 73 82 80 78 78 81 85 89 75 72 72 78 82 81 90 90 86 80 83 86 87 88 90 88 84 83 79 79 78 79 83 84 81 78 77
63 64 70 72 76 75 71 75 82 83 90 91 77 77 75 74 77 85 89 91 91 84 84 86 87 88 91 92 85 84 83 83 80 84 84 83 80 80
53 60 81 64 74 66 71 85 76 61 73 79 84 78 77 76 81 82 95 95 96 93 91 90 87 87 93 93 90 88 87 89 90 87 87 88 88 78
60 77 55 55 61 67 73 72 60 76 82 85 81 80 78 76 82 96 94 99 97 92 91 90 88 90 94 93 90 90 93 94 95 94 94 92 87 83
39 42 41 51 56 60 70 71 69 77 80 81 82 81 81 82 85 84 88 86 91 96 94 95 96 96 94 92 91 98 97 94 94 95 94 92 90 84
36 36 47 51 48 66 66 65 67 75 81 83 82 86 83 84 84 88 90 92 93 97 98 96 97 96 95 96 95 96 96 95 94 93 92 90 86 83
47 51 50 46 61 69 67 68 70 68 69 76 87 89 86 82 83 87 83 92 97 89 99 98 100 98 99 99 97 97 96 95 93 92 91 88 82 80
50 53 55 60 65 63 63 63 69 69 71 71 81 86 83 84 89 90 91 92 94 94 98 98 99 99 99 99 96 94 92 90 91 90 87 86 86 84
54 54 60 61 63 60 61 70 71 70 63 78 77 80 78 80 86 93 93 97 97 97 99 99 99 99 100 100 99 92 90 90 88 90 92 93 80 73
67 70 65 62 61 64 62 71 95 96 87 84 82 83 80 85 85 95 98 98 98 99 99 99 98 96 98 97 99 99 98 96 96 96 93 79 74 73
94 69 64 65 71 62 64 78 87 76 81 87 88 86 85 87 90 94 98 99 98 98 96 97 99 98 98 96 97 98 98 99 97 93 74 68 65 78
66 66 70 66 61 61 60 62 61 69 82 89 93 93 92 94 97 98 98 99 99 99 99 100 98 98 97 97 96 95 95 93 77 67 68 67 66 72
69 75 62 61 63 63 66 67 71 81 97 95 95 93 97 98 99 98 99 99 98 98 98 99 98 98 98 97 95 95 93 79 62 65 67 68 71 72
97 62 59 64 66 67 71 74 79 81 84 93 95 96 94 92 97 98 98 99 98 97 97 98 98 98 97 96 94 95 90 87 80 76 75 78 76 69
63 62 64 72 76 75 75 75 78 79 84 84 96 96 93 91 95 98 98 98 98 97 97 97 97 96 95 95 95 88 85 82 82 86 84 81 78 76
62 70 79 81 81 80 80 80 80 79 82 92 95 95 96 96 97 98 98 98 97 97 97 97 97 95 91 84 80 84 88 88 91 90 86 82 81 80
73 83 83 79 81 80 82 88 87 83 90 94 96 97 97 96 97 98 98 97 97 96 97 97 96 90 82 80 79 74 84 90 92 94 93 91 87 80
83 87 84 80 79 82 86 90 88 88 92 94 96 96 97 97 98 98 98 97 96 96 96 96 95 97 90 85 89 91 78 96 93 85 78 88 81 68
84 80 79 83 85 85 90 88 90 92 94 95 96 97 97 98 98 98 98 94 91 95 97 99 98 95 99 98 89 89 88 75 82 88 91 87 88 91
77 80 82 83 86 90 90 89 92 93 94 95 96 97 97 98 98 97 95 94 93 95 97 99 98 100 100 96 95 96 96 89 77 77 76 78 95 98
82 84 88 87 88 88 87 91 93 94 95 96 97 97 98 97 96 94 92 90 90 91 93 96 98 98 98 98 96 98 97 97 99 98 93 83 83 81

GFSNE_sfc_rhum_006.txt.gz
RH
87 82 76 70 75 82 88 90 92 91 79 64 69 62 70 73 73 73 76 80 82 82 82 82 82 83 87 90 83 80 77 75 75 78 81 82 80 83
48 59 69 68 74 86 89 82 79 84 88 63 62 68 72 70 69 71 69 78 82 83 83 83 84 86 88 92 94 88 82 78 76 78 79 81 81 82
46 50 61 64 79 72 79 74 71 80 92 71 54 51 63 72 73 74 72 74 74 82 85 85 85 86 87 89 93 95 94 90 84 78 78 77 78 83
49 60 67 66 66 73 73 62 74 78 76 80 65 65 74 70 72 77 72 71 79 79 83 85 90 89 89 90 90 92 94 96 92 87 80 77 79 87
58 50 41 53 54 54 54 61 68 72 78 80 80 74 74 71 78 75 72 70 73 84 89 93 91 91 90 89 90 89 92 95 96 95 94 87 82 88
48 42 38 41 50 57 54 61 71 80 79 82 81 79 78 73 77 80 78 76 77 70 76 80 88 90 89 90 90 90 94 96 95 94 94 91 87 90
45 42 46 55 57 54 56 65 70 74 70 80 87 77 77 81 84 78 84 82 80 78 82 83 88 93 94 90 90 92 92 92 92 93 94 93 91 95
51 50 50 56 56 62 63 61 60 65 68 72 82 80 78 76 82 87 88 90 91 77 93 92 90 92 89 93 89 90 90 90 93 93 92 95 97 96
55 56 55 50 62 65 65 63 63 64 62 65 76 79 78 79 94 88 82 92 92 79 83 89 85 94 85 88 89 91 92 91 93 94 97 96 95 94
57 59 62 74 70 62 61 75 90 65 65 67 78 91 84 92 79 81 92 97 96 92 88 98 89 96 98 98 95 94 93 91 95 96 95 94 94 91
58 60 75 74 64 62 77 83 67 82 65 68 71 71 72 71 75 87 97 98 96 96 92 98 94 99 99 99 99 95 95 96 95 92 91 91 90 88
63 80 71 59 63 69 57 65 85 72 66 75 80 81 74 74 76 92 98 99 98 97 99 100 99 97 98 96 99 100 98 92 91 90 89 89 90 96
93 64 58 69 83 60 59 67 70 61 78 84 82 85 81 84 93 97 98 100 98 98 85 98 100 99 98 96 97 97 99 99 98 95 92 93 94 91
65 58 67 89 61 60 64 66 66 66 78 84 87 87 88 85 89 89 92 98 98 98 96 97 99 98 98 97 97 97 97 98 99 99 98 94 92 87
58 74 82 62 60 65 66 67 68 76 80 91 90 90 86 87 93 87 92 95 98 98 97 98 99 99 99 98 96 96 96 96 97 97 97 92 90 90
87 93 63 60 63 65 67 70 73 76 80 92 93 89 85 88 93 89 97 96 98 98 98 98 98 98 98 97 96 96 96 96 96 96 92 84 77 73
61 59 63 67 74 70 71 72 75 76 89 89 89 88 88 93 92 88 97 98 98 98 97 97 97 97 97 98 96 96 95 94 94 90 82 78 70 64
53 62 79 80 77 75 77 79 79 80 85 88 89 91 92 95 93 94 98 98 98 97 97 97 97 95 94 93 94 94 90 88 86 77 67 71 73 73
68 90 87 78 77 77 85 86 88 84 87 93 94 94 94 96 95 96 97 98 97 96 97 97 96 96 91 91 87 78 82 83 81 82 80 77 73 73
82 84 80 78 80 87 86 88 88 89 91 93 94 94 96 97 96 97 98 97 96 96 96 97 97 97 92 89 88 86 76 83 84 89 91 89 80 66
78 80 80 81 88 88 86 87 91 93 93 94 94 95 96 97 97 98 98 94 92 96 96 96 99 94 98 94 87 85 84 77 76 86 88 89 87 91
78 83 83 84 89 88 89 90 93 93 94 94 94 96 96 97 97 96 95 96 95 96 97 98 97 98 98 93 95 96 97 94 79 70 71 80 94 98
87 84 86 86 87 88 90 93 94 94 94 95 95 97 96 96 96 95 94 92 92 91 91 96 95 96 99 96 96 98 97 98 99 98 97 75 80 97

GFSNE_sfc_rhum_009.txt.gz
RH
53 49 47 45 56 61 69 74 73 85 61 41 41 37 47 43 43 42 48 65 74 77 78 78 80 81 82 82 84 83 83 89 94 86 83 83 81 80
38 41 47 50 57 62 59 57 64 67 74 46 43 51 48 41 44 48 47 63 68 71 72 72 77 80 83 84 82 86 86 87 90 90 88 88 82 80
40 45 52 47 42 44 54 52 52 52 67 52 54 53 49 50 50 54 54 50 56 70 71 72 71 77 84 87 88 86 88 88 89 90 89 88 86 84
42 50 47 34 43 42 44 50 55 55 65 77 69 56 55 56 58 62 55 54 58 60 65 74 71 71 77 82 86 89 89 90 90 91 94 94 89 90
42 47 42 41 46 46 50 54 58 55 67 71 70 56 60 58 62 62 63 62 57 64 62 67 69 70 73 75 82 91 91 92 92 92 92 94 94 92
42 43 42 44 46 55 55 60 56 65 65 72 69 63 59 58 62 65 67 62 66 57 68 71 69 71 76 82 84 91 94 93 93 92 92 96 95 92
45 44 46 52 59 57 53 61 65 67 70 68 70 72 66 64 68 65 73 72 76 82 71 69 70 74 83 74 84 92 93 91 91 91 90 94 93 92
51 50 47 56 56 64 67 65 61 71 77 94 75 73 70 72 70 82 83 92 96 68 79 83 75 76 72 73 74 81 86 87 86 88 91 92 92 90
50 51 51 47 60 68 70 63 81 71 62 63 75 84 76 77 92 96 97 88 84 72 84 92 89 92 82 77 80 82 84 88 88 89 90 91 93 93
50 52 54 60 69 58 57 94 61 53 58 58 62 65 69 73 70 76 80 89 89 80 82 98 85 89 88 89 88 88 86 85 88 92 93 91 92 94
50 52 64 62 59 61 93 67 59 60 54 62 61 64 66 68 68 78 94 95 89 83 83 91 96 98 98 96 93 87 91 89 86 89 92 93 96 96
59 66 64 53 61 90 59 59 73 67 67 62 64 66 68 70 71 76 97 98 96 91 86 93 90 92 97 88 96 95 97 97 94 96 94 94 92 95
79 58 50 63 97 70 59 57 66 60 65 68 73 73 73 72 76 78 97 98 98 95 82 94 93 87 94 94 92 96 98 99 97 96 93 93 90 90
60 53 61 96 62 60 58 63 64 64 68 76 80 80 81 83 83 85 88 98 98 99 98 97 95 91 96 95 93 96 97 98 98 98 97 91 91 91
58 76 61 55 56 58 62 62 65 70 75 84 85 86 84 86 88 88 88 97 94 100 100 95 96 94 97 95 92 91 97 97 99 98 98 98 98 97
82 52 53 55 62 62 59 60 65 69 76 87 89 86 83 85 86 84 95 90 95 90 99 95 96 96 93 94 93 92 94 94 97 97 96 98 98 97
53 50 51 63 66 60 61 64 68 70 78 80 85 86 85 84 85 84 95 95 96 94 94 93 95 96 95 97 94 93 92 92 96 95 93 94 94 95
54 58 70 74 72 68 69 72 73 76 79 85 88 88 90 92 92 94 96 97 95 94 94 94 93 94 94 95 95 92 91 91 93 95 94 89 92 93
61 75 75 75 75 74 78 82 85 80 88 92 93 93 93 92 93 95 95 95 94 94 94 92 91 90 94 92 92 90 87 90 90 89 79 72 78 73
72 80 81 77 77 80 83 86 88 88 90 93 93 94 95 96 96 96 95 95 94 93 90 91 92 93 89 87 85 86 74 72 66 66 67 66 62 66
77 78 75 78 81 83 84 87 91 92 93 94 94 95 95 96 96 95 93 88 84 88 89 90 94 87 93 87 78 78 82 71 63 67 70 66 65 68
74 78 78 80 83 86 88 92 93 93 94 94 94 95 95 94 93 89 85 86 84 85 87 89 86 88 87 80 81 83 79 81 67 67 71 71 75 81
81 80 83 84 85 86 90 93 93 93 94 94 94 93 93 90 82 76 72 71 74 77 80 80 87 88 90 90 89 88 91 88 83 86 87 96 94 91

GFSNE_sfc_rhum_012.txt.gz
RH
28 32 30 30 33 36 40 46 52 63 53 41 36 25 23 25 34 39 39 49 52 54 56 55 63 71 76 74 72 74 80 84 84 84 84 86 84 81
25 29 32 31 36 33 33 32 37 44 50 36 34 34 32 32 42 37 36 56 58 56 56 62 65 65 69 70 74 80 81 85 84 81 80 80 81 82
28 30 33 34 35 31 33 34 36 38 50 45 41 38 36 37 34 35 40 40 38 51 54 60 61 68 71 76 72 75 79 79 80 81 82 82 81 83
29 31 32 27 37 34 35 38 40 40 51 63 47 43 43 42 41 40 34 32 38 44 52 54 58 65 71 72 77 71 75 76 84 88 87 84 84 84
31 33 34 35 39 38 39 40 43 41 56 60 60 51 49 44 48 48 44 40 36 54 54 54 58 64 66 72 72 72 75 82 82 88 91 91 90 87
34 37 36 38 39 47 45 48 49 58 54 60 65 61 56 51 46 50 51 50 55 46 54 60 62 69 64 66 73 76 84 83 88 90 92 92 93 92
37 35 37 44 53 51 46 54 63 59 62 68 71 65 54 52 56 55 62 60 64 59 69 60 58 63 64 64 67 74 75 75 87 87 85 87 88 89
39 36 35 44 44 57 60 62 56 66 80 87 72 64 56 56 54 62 72 77 83 58 61 67 62 71 63 61 70 76 80 79 80 85 84 86 85 89
37 38 36 33 50 51 57 56 64 74 65 58 65 64 63 62 66 81 84 80 76 62 70 84 71 80 67 62 68 70 80 85 83 84 85 85 84 86
37 38 40 49 51 50 49 72 70 51 49 43 50 61 72 66 62 65 78 84 82 74 74 97 78 78 73 90 90 82 81 84 84 86 87 87 85 87
38 40 50 49 53 55 84 92 61 54 45 56 62 60 60 62 65 75 90 91 87 79 76 92 87 92 90 80 76 76 84 87 90 92 87 84 87 90
45 52 53 48 59 69 66 51 79 58 62 63 54 54 58 61 66 71 88 96 92 90 80 96 87 88 87 83 91 84 78 84 97 96 94 90 91 97
70 50 45 60 65 57 56 52 60 56 60 59 61 64 64 66 70 72 80 93 95 93 79 92 95 91 87 87 82 84 96 96 98 97 96 94 91 91
57 50 56 63 56 56 56 62 60 60 58 67 73 74 76 79 81 81 83 86 87 93 89 100 98 92 91 87 84 83 96 98 99 98 97 91 91 90
50 68 62 55 55 55 60 59 59 60 68 78 82 83 81 83 86 85 87 87 88 94 100 100 97 94 95 92 88 92 97 98 99 98 98 98 98 95
76 62 51 52 54 55 52 52 56 62 71 82 86 84 82 83 84 82 93 89 94 93 100 99 97 96 94 94 95 95 96 98 98 98 98 98 98 97
60 48 45 47 56 53 55 57 61 64 76 80 89 87 83 83 86 87 92 95 97 95 94 94 97 97 97 98 95 94 92 95 98 98 96 97 98 97
53 51 57 64 66 62 62 63 66 74 82 88 87 88 92 92 93 93 95 97 95 94 94 94 94 94 94 93 95 92 92 94 97 98 88 86 93 97
55 66 69 68 68 68 71 76 83 86 93 92 93 93 93 94 94 95 95 94 94 94 92 90 89 94 95 93 92 95 90 94 94 93 85 82 85 95
65 72 72 70 70 74 77 84 90 89 90 92 93 93 94 95 96 95 95 96 90 84 85 86 90 93 95 95 92 93 96 94 90 91 92 93 95 93
68 69 68 72 75 78 81 90 92 92 93 94 93 94 93 95 92 90 86 79 78 80 80 85 90 81 91 89 86 90 87 72 72 78 83 82 75 62
66 71 72 75 78 82 92 92 92 92 93 92 92 92 92 90 84 76 66 69 70 74 77 82 85 84 82 77 81 82 75 74 76 77 74 72 63 68
72 73 78 79 81 91 92 93 93 92 92 93 92 90 90 84 71 66 63 77 88 89 89 90 90 84 82 79 80 80 84 76 72 82 88 88 84 72

GFSNE_sfc_rhum_015.txt.gz
RH
31 34 32 31 33 36 39 44 47 53 46 37 38 30 34 33 39 36 36 45 47 48 49 52 55 57 55 58 64 63 59 62 62 64 72 78 75 79
26 29 31 31 32 35 39 39 40 46 52 40 38 38 37 36 40 39 39 55 50 49 48 53 54 54 55 58 60 61 60 64 68 66 67 70 76 77
28 30 33 33 34 34 38 41 43 44 53 45 41 42 46 45 42 43 45 44 41 48 49 49 49 53 55 57 60 59 61 65 66 69 67 72 76 77
30 32 34 28 41 41 41 43 45 44 51 57 51 52 49 48 47 49 41 34 40 45 48 48 52 56 55 58 64 67 69 70 72 66 67 70 72 78
33 36 37 38 43 43 43 46 48 45 56 62 63 54 53 54 55 48 42 42 36 50 51 50 50 57 59 62 63 66 71 73 73 71 79 82 77 77
38 39 38 38 40 48 47 53 52 62 64 68 63 66 64 58 56 55 52 47 51 40 48 53 55 55 62 60 63 63 70 69 67 71 76 77 87 87
41 37 36 45 48 46 41 54 63 74 67 69 79 79 72 62 62 56 57 58 60 58 62 58 58 62 59 56 58 66 67 64 66 71 76 75 84 87
43 38 36 44 41 49 54 58 56 57 70 78 94 91 66 60 52 63 74 83 85 58 64 65 60 63 61 61 63 65 62 66 67 69 72 78 84 85
40 39 37 32 48 52 58 58 59 69 82 63 69 71 60 61 75 88 86 75 72 62 74 81 75 79 72 57 61 63 69 77 76 76 79 86 86 86
39 39 41 48 55 53 56 81 79 72 54 52 53 54 62 68 70 61 69 87 84 78 71 95 83 93 72 73 65 71 64 77 83 88 87 87 89 88
40 43 48 52 54 62 72 79 57 55 54 58 58 58 58 58 60 66 92 93 89 83 75 83 88 89 83 83 71 72 90 73 83 82 77 81 84 84
50 57 59 51 59 72 60 53 69 66 70 64 58 56 57 60 63 69 84 96 94 92 78 89 90 89 94 80 90 80 77 80 86 97 93 92 89 92
72 57 52 59 67 61 55 51 63 62 63 60 60 65 65 67 70 72 77 92 95 94 80 84 95 93 93 93 87 89 85 97 97 97 97 96 94 93
64 54 56 81 58 54 54 57 59 60 59 67 74 77 78 80 80 81 82 84 85 89 85 90 97 96 97 94 89 84 84 98 99 98 98 94 94 93
52 61 86 56 54 52 56 58 58 62 68 84 89 86 83 84 85 86 89 88 87 86 88 92 98 98 97 96 93 88 95 99 100 99 98 98 98 95
75 87 53 52 54 55 55 56 59 62 68 80 88 86 82 85 88 90 96 93 96 90 99 99 98 98 97 94 94 94 98 99 99 100 98 98 97 98
63 54 51 53 60 59 59 60 63 65 83 86 90 90 88 89 91 92 94 96 97 97 96 94 95 97 98 98 98 98 99 99 99 100 98 98 99 98
55 56 61 68 70 66 65 67 70 78 85 89 90 92 94 94 94 93 96 97 97 96 96 96 96 94 97 96 96 98 98 99 99 100 98 97 98 99
59 68 72 71 71 71 74 80 90 85 91 94 94 94 94 94 95 96 95 96 95 90 92 94 96 96 97 96 97 95 98 98 97 96 96 98 98 99
68 74 74 72 72 76 84 92 91 88 90 92 94 92 92 94 94 91 88 89 87 88 88 91 95 96 97 97 97 97 98 97 93 95 96 96 98 98
71 73 72 74 76 85 92 92 93 93 93 94 92 92 93 96 95 89 84 72 77 86 89 94 96 77 97 97 95 95 97 99 97 94 97 93 94 97
72 74 74 76 87 93 94 93 93 91 92 91 91 93 94 95 96 95 95 95 95 96 96 97 92 96 91 94 96 96 96 97 98 97 89 82 92 96
73 75 78 85 92 93 92 91 90 90 90 92 94 94 95 95 93 95 95 94 96 96 97 98 94 94 90 88 88 90 90 90 90 93 93 73 72 68

GFSNE_sfc_rhum_018.txt.gz
RH
42 44 41 37 40 44 47 45 55 61 56 45 45 37 40 38 40 42 40 48 50 50 52 52 52 51 51 53 53 52 52 55 56 61 64 59 60 70
30 34 35 37 40 41 47 47 49 55 62 46 46 44 39 37 45 42 43 53 53 54 52 49 48 49 50 50 51 49 51 54 56 58 59 58 58 70
32 34 39 38 41 44 46 52 52 52 62 54 46 44 49 52 47 48 49 49 48 53 50 50 49 48 50 51 54 54 57 55 57 56 60 60 58 70
38 42 43 37 46 45 51 49 54 52 56 61 58 61 56 54 52 54 51 44 49 47 50 50 50 51 54 53 51 52 59 56 59 65 64 70 72 71
46 49 49 47 49 49 50 50 51 48 62 73 71 65 62 58 61 59 58 52 42 47 49 53 54 55 56 55 56 56 59 62 70 66 61 72 67 65
51 52 50 48 47 50 48 51 48 62 66 75 77 82 66 68 81 74 62 52 50 42 53 57 59 57 58 57 57 58 60 59 58 60 62 66 67 72
54 51 49 50 51 47 42 53 58 60 88 93 92 79 82 70 72 64 62 59 62 60 66 58 56 58 59 62 61 62 62 62 64 70 73 66 69 68
58 51 46 47 47 53 56 56 57 74 79 94 84 74 63 63 70 69 72 80 89 65 62 67 64 68 67 64 69 64 77 64 60 61 66 67 66 74
54 51 46 39 53 55 62 67 90 76 70 59 64 66 76 86 83 84 92 93 86 68 75 82 70 81 74 61 64 67 73 76 64 63 71 70 68 68
53 51 52 54 59 57 60 87 92 64 58 53 55 64 74 62 60 60 68 82 84 76 73 91 83 77 66 70 70 68 68 68 78 96 87 87 87 82
51 53 60 61 62 61 70 93 63 66 56 59 73 67 59 59 59 63 91 94 88 81 76 85 88 84 80 80 74 72 89 81 70 70 72 74 80 80
57 67 69 59 59 71 66 57 77 62 67 82 59 58 61 64 66 70 82 96 92 91 78 90 90 92 93 79 87 81 85 82 74 83 83 84 84 85
83 76 66 61 77 69 57 54 58 58 65 62 63 68 70 74 74 76 80 94 96 94 80 84 96 93 95 94 86 94 89 88 94 97 98 98 95 89
70 64 60 74 61 57 57 59 61 60 62 69 76 83 80 84 84 83 84 87 88 94 93 96 97 97 96 95 90 83 84 91 98 99 99 96 94 94
61 67 82 63 57 55 59 60 61 66 71 88 90 88 88 89 89 90 89 87 88 89 95 97 98 98 99 98 96 92 93 91 98 99 98 98 99 99
76 90 62 57 57 60 59 59 63 66 76 92 93 90 88 90 91 92 95 92 95 95 94 93 96 98 99 97 96 95 94 98 98 99 99 98 98 97
64 64 56 59 68 64 64 64 66 71 91 91 93 92 89 89 89 88 94 94 96 97 94 92 89 93 97 98 97 96 98 98 99 99 98 98 98 98
59 60 69 74 74 71 70 76 79 85 90 92 91 91 93 94 93 89 90 90 91 90 94 96 94 92 98 98 90 97 98 98 98 99 99 97 98 99
64 75 77 77 77 76 82 90 93 91 94 94 94 94 94 93 90 94 95 94 90 91 92 96 96 96 95 96 96 99 97 98 98 98 98 98 98 99
73 81 82 76 77 87 91 93 93 91 90 91 90 91 94 95 95 94 96 96 95 94 95 96 96 97 97 97 96 98 99 98 96 97 98 98 98 97
77 78 75 78 88 92 92 93 93 91 88 92 93 93 94 95 93 94 95 89 92 95 96 96 95 89 98 97 96 95 97 98 98 97 94 93 98 97
72 75 78 83 91 94 94 93 92 90 92 93 93 93 92 95 95 94 93 95 94 96 98 98 94 96 97 95 96 97 96 97 99 99 95 80 96 97
76 82 83 89 92 93 92 92 91 90 91 93 93 94 95 96 93 92 95 95 96 97 98 97 96 95 94 97 96 97 97 97 96 86 83 97 97 98

GFSNE_sfc_rhum_021.txt.gz
RH
46 50 47 38 45 51 54 51 58 68 58 49 51 41 45 42 43 41 44 51 53 54 55 54 54 54 56 52 52 51 52 53 51 56 53 52 54 53
38 44 42 42 44 46 54 60 54 60 71 50 48 46 42 40 48 47 46 54 56 56 55 54 53 58 52 54 52 56 51 52 55 55 60 61 63 64
47 44 49 48 51 51 52 54 59 61 64 54 48 47 50 58 50 52 54 52 51 59 57 57 53 52 51 51 52 53 54 57 57 56 55 60 67 66
51 54 53 47 57 55 55 57 56 54 59 62 57 66 65 56 58 62 52 51 63 67 56 54 53 52 52 54 54 55 57 54 55 57 60 54 57 70
56 58 57 58 61 59 57 54 55 49 61 75 82 62 65 71 80 84 64 59 50 52 53 54 53 56 58 60 57 55 55 56 57 56 56 64 78 73
59 60 58 59 60 58 52 54 52 61 60 65 74 88 71 74 78 58 56 55 61 47 52 56 60 63 58 58 59 59 60 62 62 60 57 63 63 63
61 56 56 57 56 52 47 53 57 64 84 93 93 91 71 63 62 59 66 89 68 64 64 70 65 58 60 64 63 64 65 65 72 75 69 65 70 65
62 55 55 56 54 57 59 60 60 67 89 96 95 79 66 65 64 77 84 89 90 64 68 70 63 67 65 64 65 67 65 60 62 65 76 70 64 62
58 59 55 47 59 62 67 66 70 75 85 65 69 72 72 68 90 95 86 83 84 74 73 81 68 75 68 56 67 63 63 67 70 71 68 65 63 59
62 59 60 63 70 63 61 69 90 82 65 59 63 61 77 75 60 59 71 86 84 74 68 89 74 75 66 65 68 67 73 75 83 78 79 86 82 76
55 59 65 66 67 59 65 97 84 78 57 59 73 68 60 61 62 70 93 94 88 78 73 84 86 86 81 79 68 72 71 71 71 69 68 67 67 66
64 76 70 60 58 74 75 68 79 60 72 80 57 59 62 64 69 72 89 96 93 92 74 90 92 90 93 81 84 82 75 75 74 80 78 74 74 73
84 72 66 63 86 62 59 55 59 60 63 63 65 67 69 72 71 76 89 97 95 94 80 89 95 92 94 93 85 84 86 87 84 92 97 97 90 83
68 63 63 89 60 59 59 62 62 63 62 71 78 80 80 85 88 90 91 94 94 96 94 97 97 97 96 94 90 82 85 92 98 97 98 97 98 96
65 74 76 62 59 59 64 64 64 67 80 90 88 87 86 90 92 92 91 88 88 88 93 98 98 97 97 96 95 91 94 90 96 99 99 100 99 99
80 74 60 58 62 63 62 61 64 72 85 91 92 87 87 92 93 92 95 93 95 86 81 88 97 98 96 96 98 94 95 97 95 98 98 98 97 98
61 58 57 62 70 65 64 65 70 74 87 86 92 91 89 90 91 88 94 94 96 95 92 89 87 89 96 98 97 96 96 97 98 99 99 98 98 98
60 62 71 77 76 71 72 78 77 80 86 90 90 90 94 94 94 92 91 96 96 94 95 95 95 91 94 94 97 97 97 98 99 99 99 97 98 98
66 76 82 78 77 79 85 89 90 84 88 90 93 94 94 92 90 93 94 95 94 94 95 96 96 97 96 96 93 99 97 97 98 97 98 98 98 98
75 81 80 78 81 88 90 92 91 88 89 92 94 93 94 95 94 94 94 96 96 95 93 93 96 97 97 97 97 97 99 98 96 98 98 98 98 97
76 78 76 82 88 91 90 91 91 92 91 93 93 94 94 95 93 93 94 88 92 95 96 96 97 94 98 96 96 95 97 99 98 98 99 97 98 97
74 79 82 84 90 92 92 91 92 90 92 92 93 94 94 94 96 95 93 95 95 96 98 97 96 97 97 94 96 96 96 97 97 97 97 97 98 98
83 85 86 88 91 92 92 92 91 91 91 94 93 93 92 95 96 95 95 96 96 97 98 97 96 96 97 97 94 96 94 94 96 96 97 97 95 95

GFSNE_sfc_rhum_024.txt.gz
RH
49 51 52 52 54 54 57 60 68 75 66 54 56 46 49 48 47 42 44 54 56 56 56 56 56 56 55 55 56 59 63 60 64 57 56 54 53 55
43 51 54 56 55 59 63 62 62 69 76 57 53 48 46 42 48 48 52 57 58 60 58 56 58 60 64 65 63 56 57 57 53 53 54 56 51 58
51 55 60 59 58 60 63 65 66 65 74 60 52 51 58 61 56 56 57 56 63 68 59 56 54 53 54 56 56 54 54 54 57 62 61 63 63 64
54 61 62 49 63 65 66 66 65 62 65 72 75 70 58 54 56 74 69 56 67 52 54 55 56 54 53 54 54 55 58 60 66 73 69 63 60 60
57 62 67 63 65 66 66 65 63 54 63 67 68 60 60 68 77 69 53 48 40 50 54 57 58 58 59 63 67 64 70 57 56 56 57 57 58 64
59 66 66 65 65 68 61 60 56 63 64 69 78 88 78 88 67 62 58 56 56 48 68 61 62 61 62 61 60 59 60 62 62 61 59 63 62 59
62 62 61 59 59 56 51 57 61 76 90 95 78 81 82 66 66 63 66 65 73 78 62 60 59 61 60 63 62 63 64 64 65 66 67 71 74 76
59 58 58 60 61 61 63 63 62 66 75 83 94 74 70 67 67 72 82 93 79 60 65 69 66 66 63 63 66 67 66 65 64 70 75 66 63 66
64 62 58 50 64 70 73 65 64 69 88 69 76 75 73 75 94 92 82 82 86 73 75 79 67 70 63 56 66 66 66 66 66 72 78 77 77 76
63 65 68 71 71 60 57 78 95 79 75 60 59 65 77 66 60 65 80 91 87 72 65 92 74 77 68 66 70 71 70 69 70 75 83 84 80 73
61 66 75 70 64 61 90 87 72 66 52 64 72 64 62 63 66 80 92 93 87 76 70 84 85 86 82 80 71 74 72 71 68 69 74 75 76 89
66 80 72 61 63 78 57 61 73 63 85 77 59 59 63 65 70 72 94 96 94 91 72 91 90 89 94 79 84 82 73 74 71 78 87 84 78 78
84 70 64 72 71 60 60 61 63 63 71 64 66 69 69 70 70 78 92 97 95 94 78 89 95 92 95 92 82 80 82 83 84 93 95 98 97 96
67 69 76 69 61 61 63 66 67 66 65 74 80 79 81 87 88 89 91 94 93 96 94 96 97 97 96 92 89 81 82 85 97 96 97 97 98 98
73 69 70 62 62 63 67 67 66 70 80 89 87 87 88 90 92 92 89 87 87 88 95 97 98 96 96 95 94 90 92 86 88 98 98 99 99 97
70 72 61 61 65 66 63 61 65 68 81 91 91 87 84 86 87 91 95 91 95 88 82 86 94 98 96 95 96 94 89 97 95 98 98 99 98 98
61 60 60 64 71 66 66 67 68 70 81 83 90 90 86 86 88 86 94 95 95 95 92 87 88 91 93 97 96 91 95 96 98 98 98 98 98 98
63 66 74 77 78 73 75 78 76 79 83 88 89 88 92 94 93 90 91 95 96 94 95 94 95 91 94 92 94 96 97 97 98 99 98 98 97 98
70 80 83 81 81 81 84 88 89 83 87 89 90 94 94 93 90 92 91 93 93 95 94 95 96 96 96 95 91 95 98 98 98 97 98 98 98 98
78 83 85 83 84 88 90 91 91 88 89 90 93 93 94 95 95 94 93 95 95 94 92 93 96 96 97 97 97 96 99 98 98 98 98 98 98 91
79 82 81 86 88 90 90 91 91 92 92 94 92 94 94 95 93 92 95 90 90 95 95 94 96 96 98 96 95 95 97 98 98 98 98 98 98 96
79 84 84 86 88 91 91 91 91 90 92 92 92 93 93 94 95 94 95 96 95 97 98 94 95 97 96 96 97 96 97 98 97 97 97 98 98 98
87 87 88 88 90 91 91 92 91 92 92 94 94 93 94 94 93 96 96 96 97 98 98 96 94 97 96 98 95 95 95 93 94 96 97 97 97 97

GFSNE_sfc_rhum_030.txt.gz
RH
52 54 57 59 63 68 72 76 77 81 65 55 68 54 56 55 56 49 50 57 60 59 57 56 56 57 60 57 56 55 56 64 65 61 62 67 64 64
48 53 58 62 66 72 78 76 78 80 86 60 60 58 55 51 56 49 50 56 59 61 61 61 65 61 58 55 55 56 57 59 66 67 67 65 68 70
52 55 59 62 70 74 77 75 77 79 86 70 62 59 65 62 53 54 56 55 58 71 81 62 58 55 55 57 62 65 64 66 67 68 72 73 67 70
56 60 63 49 68 71 74 74 76 72 79 86 75 68 62 60 61 67 66 69 73 69 57 56 56 56 57 58 63 66 65 64 63 64 64 65 63 64
62 65 67 70 73 74 73 74 74 67 78 81 73 66 67 66 81 78 62 55 44 52 57 59 60 61 63 66 66 65 64 67 70 67 64 65 68 71
64 67 68 70 72 73 73 71 61 67 67 74 74 79 88 78 64 62 60 58 58 50 61 64 64 63 63 61 62 60 60 62 63 63 63 64 63 62
68 66 65 67 63 60 56 63 64 70 78 93 88 84 72 65 68 63 66 68 78 66 61 60 62 61 61 66 64 65 66 67 66 67 69 70 73 73
72 67 69 67 68 65 67 64 63 80 96 85 82 72 70 68 66 73 92 85 86 62 69 76 69 68 64 62 66 67 67 67 66 66 65 72 71 70
74 71 66 57 69 72 78 72 79 76 65 64 70 71 71 72 95 94 86 86 84 72 76 87 68 69 60 54 66 68 69 69 68 69 71 77 74 72
74 75 77 74 78 68 65 97 82 68 62 58 63 69 86 71 64 68 90 92 84 68 62 93 71 73 65 62 70 70 70 69 68 70 74 75 76 75
68 74 79 74 66 63 83 81 65 65 58 63 74 67 65 67 69 79 91 93 87 74 67 80 80 82 77 75 66 72 67 65 66 68 69 68 67 68
69 76 67 63 64 78 60 63 77 66 82 87 61 63 66 68 71 71 85 96 92 91 71 91 89 89 91 74 84 71 71 73 73 74 76 78 82 89
63 66 72 67 69 62 62 65 68 69 69 66 68 69 70 72 71 76 82 96 95 94 77 89 94 90 94 92 80 80 78 78 82 87 88 94 98 98
66 73 65 67 64 64 65 69 69 67 66 72 78 81 82 85 85 86 86 88 88 96 93 96 96 96 95 91 88 81 80 84 90 92 93 90 93 96
66 64 67 66 64 66 70 70 69 70 74 88 88 87 87 88 89 88 86 86 86 86 89 90 97 95 96 95 94 90 95 88 87 93 93 97 98 97
68 72 66 64 67 68 66 64 66 68 76 88 90 86 86 87 88 86 94 90 94 86 81 84 92 98 96 92 97 94 91 96 95 98 98 98 97 98
63 66 65 69 75 70 69 69 69 69 83 84 90 90 87 87 88 86 91 93 94 92 90 84 85 88 91 96 96 89 95 96 98 98 98 97 98 98
69 73 79 80 81 77 78 78 77 82 83 90 89 90 92 92 92 89 90 94 95 91 93 91 91 90 83 89 83 97 91 97 97 98 97 98 96 98
77 84 86 84 85 84 86 88 90 84 88 92 92 92 94 93 91 92 92 92 92 90 94 91 94 96 94 94 89 73 98 97 97 97 97 98 98 99
82 87 88 85 85 88 89 91 90 88 89 90 93 93 93 95 94 93 93 95 94 93 91 90 92 96 97 97 97 90 85 98 98 97 97 98 94 83
84 86 83 86 88 90 89 91 92 93 94 94 93 93 93 95 93 92 93 89 90 93 94 94 90 84 96 94 93 89 90 90 98 98 97 96 94 90
83 86 84 85 88 91 92 92 93 91 93 92 92 93 93 94 94 94 92 95 93 96 96 94 90 94 98 99 96 95 95 90 83 92 93 99 98 98
87 86 87 88 90 91 92 92 92 92 92 94 93 93 93 94 91 92 93 93 96 96 96 97 93 97 98 100 94 94 95 96 96 94 95 97 98 99

GFSNE_sfc_rhum_033.txt.gz
RH
37 40 39 37 40 43 47 48 52 56 50 36 40 36 40 41 45 40 41 54 58 60 60 60 59 58 59 69 64 69 66 62 64 64 62 62 64 75
36 39 40 41 43 44 48 50 52 56 63 44 45 44 43 41 47 46 43 57 61 63 61 59 59 59 61 63 61 60 59 61 65 66 65 67 68 65
41 43 45 45 45 46 48 52 54 54 62 55 48 47 48 48 43 45 50 50 50 62 61 60 59 58 58 59 61 63 65 65 64 66 68 70 74 74
45 47 47 43 52 49 50 52 54 54 61 68 59 55 48 47 50 58 54 51 45 51 58 59 60 61 61 61 61 61 61 63 64 71 70 67 68 67
49 50 51 50 51 49 51 55 57 55 63 70 62 53 56 60 60 51 42 41 37 52 58 60 62 63 64 64 63 62 62 62 65 63 64 64 67 70
52 52 51 51 53 58 58 60 59 62 58 62 66 84 63 58 53 52 51 49 50 45 58 60 62 62 63 64 64 63 63 64 64 64 63 66 70 72
53 51 50 56 63 60 54 58 57 63 70 85 84 73 64 54 54 52 57 60 64 57 53 52 50 52 54 62 61 64 66 67 67 67 68 69 69 69
53 50 51 60 61 65 64 64 63 68 96 88 79 63 54 53 55 64 82 79 82 52 54 60 54 55 52 51 62 65 66 66 67 67 69 70 69 72
52 52 52 50 61 60 68 70 68 88 70 61 60 59 62 61 90 93 81 76 75 61 65 72 54 56 50 45 63 66 68 69 69 70 71 70 74 73
53 53 56 58 61 64 57 89 85 59 52 50 56 60 76 75 61 63 75 83 75 58 54 84 59 61 55 53 66 69 69 69 70 70 71 71 72 70
52 53 58 56 63 62 75 86 56 54 53 61 70 70 65 66 67 74 86 89 82 65 60 70 67 73 69 66 56 63 64 66 71 76 81 83 82 79
52 52 59 61 63 70 64 58 71 56 69 83 51 52 57 58 69 62 85 95 91 87 59 82 83 81 87 60 68 64 60 68 73 74 78 85 91 93
55 53 56 64 67 63 62 55 60 65 68 55 55 56 59 60 59 65 76 96 95 92 70 86 92 87 90 87 76 75 74 73 82 85 82 81 83 95
58 58 56 67 64 64 62 69 68 66 55 60 66 74 76 80 81 82 84 88 86 95 91 95 96 95 95 90 84 76 77 83 91 98 94 84 84 86
61 62 68 66 64 62 68 70 70 59 63 75 81 85 83 86 89 88 87 86 88 87 89 90 96 95 96 95 93 86 86 87 89 95 97 98 98 97
65 70 64 62 66 66 61 58 56 58 68 82 84 80 81 86 86 85 91 90 92 86 82 85 96 98 96 90 93 91 88 96 96 98 97 97 97 97
62 59 54 57 62 59 59 60 60 61 74 76 85 85 82 83 85 84 89 92 94 92 89 83 86 88 89 94 93 86 85 93 96 98 98 97 93 98
61 61 65 68 69 66 70 70 69 77 76 85 85 86 90 90 91 88 89 93 94 90 91 89 88 89 83 82 69 91 90 90 95 98 98 98 96 98
66 72 75 75 77 77 80 84 87 81 89 92 92 90 91 91 89 91 90 90 90 88 89 88 92 95 92 90 75 69 97 94 95 96 97 97 99 99
72 77 80 78 80 84 85 88 88 85 87 88 91 93 93 94 93 92 91 93 91 90 90 88 91 94 97 95 94 84 81 98 97 97 97 97 91 83
76 78 76 81 84 86 87 89 90 92 93 94 92 93 93 94 92 90 91 88 89 89 92 90 89 82 94 92 88 82 83 80 94 98 97 97 96 92
76 80 80 82 86 90 91 90 91 90 93 92 92 93 93 93 93 92 88 92 89 90 93 91 88 90 91 91 91 89 86 82 79 80 84 99 99 98
81 81 84 87 89 90 91 91 91 91 92 94 93 92 92 94 90 89 90 89 91 91 89 91 87 86 87 89 89 86 87 85 84 86 91 95 98 99

GFSNE_sfc_rhum_036.txt.gz
RH
29 32 31 29 30 32 34 36 41 43 37 28 26 24 28 30 36 33 34 48 54 57 60 60 60 60 58 59 62 68 64 62 66 61 66 67 67 64
27 31 32 31 32 33 36 36 38 42 46 32 30 30 32 31 37 35 35 49 54 57 59 57 58 59 60 61 61 61 62 62 64 66 69 65 65 64
32 34 36 36 35 34 35 37 39 39 44 40 36 35 38 38 34 36 41 42 39 51 54 55 57 59 61 61 62 63 65 69 71 70 70 70 69 67
34 37 37 32 40 36 36 39 39 40 46 51 46 45 42 39 43 48 37 31 33 42 52 56 59 60 61 62 63 64 64 65 67 70 70 70 71 71
37 39 39 38 40 38 40 42 44 41 48 58 58 45 45 52 48 44 38 36 31 46 51 55 59 61 63 63 62 62 62 63 64 65 65 64 66 71
39 42 40 39 40 46 46 47 42 50 50 51 59 65 74 55 45 43 42 43 44 39 50 53 56 57 60 60 60 61 63 64 64 65 66 65 66 68
37 37 38 44 58 58 51 50 50 54 68 78 73 83 61 49 42 43 49 52 58 53 48 48 45 47 50 56 56 59 59 62 64 66 68 71 70 69
38 36 36 46 46 57 59 61 61 73 95 92 83 61 47 42 46 57 73 85 74 49 50 57 51 50 48 48 56 59 62 64 66 66 67 68 70 71
40 40 38 36 48 45 55 61 67 67 71 60 59 49 49 52 79 92 76 70 69 57 61 67 50 50 47 41 59 62 65 67 69 71 72 72 72 72
40 41 42 44 45 51 53 76 77 55 44 42 47 49 61 70 67 59 69 76 71 58 52 78 56 59 52 51 63 65 66 66 68 72 77 79 79 78
40 40 44 45 53 61 67 92 50 44 44 51 58 68 68 61 61 67 84 87 82 65 58 66 65 71 68 66 55 56 59 63 69 72 78 82 89 91
39 40 49 49 58 65 64 51 59 44 55 72 55 45 48 49 60 57 75 95 90 88 59 79 81 77 84 61 68 64 58 66 68 69 72 83 90 90
46 40 41 55 62 63 62 50 51 56 66 52 46 47 49 53 54 59 71 94 95 92 68 83 92 85 88 85 75 76 73 72 72 77 78 79 80 89
47 48 47 62 64 64 59 63 66 67 51 51 57 65 71 76 78 79 81 86 85 93 86 91 96 94 95 90 83 76 78 82 89 93 96 95 96 92
55 59 63 62 62 55 58 66 66 51 53 67 77 81 80 83 87 87 86 86 87 87 88 87 95 95 95 94 91 85 88 87 89 94 96 98 98 97
60 61 54 56 54 54 49 48 48 51 61 74 79 75 77 84 84 83 90 87 91 86 83 85 90 96 95 90 89 88 86 95 91 95 97 94 97 95
60 48 45 43 49 47 48 50 53 55 69 71 82 83 79 81 83 83 88 91 93 88 86 84 86 88 91 94 94 87 84 88 91 92 97 97 92 97
56 49 50 54 56 54 58 61 63 72 73 83 84 84 89 88 89 87 87 92 94 86 86 86 88 87 83 80 73 88 86 90 90 92 98 98 95 92
54 59 62 62 63 65 72 78 83 77 87 89 90 89 90 91 88 90 89 90 89 87 86 87 91 93 94 89 74 70 91 93 93 92 90 97 98 97
60 65 67 64 66 74 79 85 86 83 86 88 91 93 94 94 93 92 90 92 90 88 88 86 89 93 97 96 95 84 80 97 97 95 95 94 90 84
62 64 63 67 74 80 83 86 88 91 93 94 92 93 93 94 92 89 90 86 86 88 91 88 87 79 95 92 93 81 79 78 83 98 98 97 96 87
62 66 68 74 81 86 89 89 91 90 92 91 92 93 92 93 94 92 87 92 87 90 90 89 86 91 89 87 89 88 82 77 75 76 82 98 99 98
69 71 76 81 85 87 89 90 91 91 91 94 94 93 93 94 89 89 90 90 91 91 87 86 85 85 87 87 86 85 86 84 81 82 83 84 97 98

GFSNE_sfc_rhum_039.txt.gz
RH
33 37 34 31 33 36 38 40 47 51 46 34 32 28 30 31 36 35 36 45 50 52 54 55 55 56 57 58 60 62 64 61 64 62 68 67 68 64
29 30 34 34 35 36 39 40 42 47 52 39 36 33 33 32 38 37 38 46 50 52 54 54 53 54 56 58 60 61 63 65 66 67 72 69 68 68
31 34 36 36 37 37 40 41 43 43 49 44 41 40 41 44 41 40 44 44 44 49 51 50 53 55 58 59 60 62 64 64 65 67 68 73 71 69
32 35 36 30 44 40 40 42 43 43 49 54 48 50 50 46 44 49 45 37 40 41 48 52 54 56 58 59 60 62 62 63 65 65 66 66 68 69
34 36 38 39 45 42 42 44 48 43 50 53 56 50 51 51 60 57 46 42 33 45 50 52 55 58 59 58 58 59 58 59 60 61 63 65 65 67
36 38 38 40 42 48 49 55 48 53 53 58 63 70 67 68 59 53 48 47 50 41 50 56 55 56 57 56 59 59 59 60 61 61 62 62 64 66
37 35 37 44 48 50 49 55 57 60 71 81 80 80 79 61 56 49 53 59 60 65 57 55 53 54 56 57 56 57 58 59 61 63 66 67 68 72
39 36 36 43 42 47 53 54 54 63 87 93 90 77 70 56 51 62 74 82 89 56 60 62 58 60 56 54 55 58 60 62 64 63 65 69 71 71
39 40 39 34 46 45 50 53 59 64 64 64 67 60 58 57 75 84 85 81 74 65 66 81 63 62 56 48 60 61 64 66 67 68 67 70 74 75
38 39 42 43 45 49 51 74 75 72 60 46 50 53 58 62 83 94 74 77 72 65 62 87 65 67 61 60 64 65 66 64 62 63 65 68 70 76
36 39 41 45 48 53 61 78 71 56 48 51 54 60 64 60 55 61 84 89 85 72 66 76 76 80 74 72 64 59 60 62 67 67 68 69 71 76
40 42 48 44 52 56 59 69 67 56 60 66 62 58 51 51 57 58 76 97 93 89 71 88 89 86 91 70 78 70 69 68 67 70 69 71 75 90
55 47 44 53 58 64 61 58 59 57 62 64 56 53 55 60 62 66 72 92 96 93 74 83 95 90 93 90 78 77 76 77 77 79 78 76 77 84
52 48 54 62 62 59 59 59 61 63 58 56 62 69 73 78 80 80 80 84 87 95 89 90 96 96 95 92 87 77 78 81 85 88 88 84 82 85
51 59 61 60 58 55 53 58 57 55 57 70 79 83 82 84 85 86 85 85 86 85 85 86 94 95 96 95 93 88 84 83 86 92 96 93 92 91
66 66 58 55 50 49 49 48 51 54 64 78 83 80 80 85 85 84 93 89 92 87 80 83 87 92 96 94 94 92 84 92 87 95 91 97 85 84
61 59 51 46 53 51 51 55 58 60 75 80 89 90 86 86 86 84 89 94 95 90 88 83 82 84 88 94 97 88 86 88 87 87 95 95 88 84
62 55 54 59 61 59 62 65 69 76 80 89 89 89 92 92 91 89 88 92 94 89 90 86 88 91 85 80 70 87 82 85 86 86 92 98 92 82
56 63 68 68 69 70 75 81 86 82 87 92 93 92 92 93 88 91 90 91 91 88 87 87 92 95 95 91 73 66 90 90 90 92 86 89 96 88
64 70 72 70 72 78 83 89 90 86 88 90 92 93 93 95 93 92 91 93 93 91 92 86 87 93 97 97 96 85 77 89 97 95 92 87 88 80
67 69 68 74 80 86 88 90 90 92 93 95 93 93 93 96 93 90 92 86 87 92 93 88 86 76 86 92 94 81 76 72 80 95 97 97 97 95
67 74 76 80 87 92 92 91 92 91 93 93 93 94 94 95 94 93 92 94 91 92 94 92 83 86 96 96 94 91 84 79 76 77 77 94 99 98
77 79 83 88 91 93 93 93 92 91 91 94 94 94 95 95 92 92 94 92 92 96 84 87 85 85 84 86 88 96 94 85 86 85 83 77 96 97

GFSNE_sfc_rhum_045.txt.gz
RH
45 47 49 50 52 55 58 61 64 72 60 63 57 52 52 54 53 47 55 52 54 55 55 56 57 56 56 56 56 61 61 64 68 66 66 66 67 68
44 40 45 50 51 56 58 61 67 72 72 61 55 59 55 45 52 51 49 54 56 57 58 57 55 56 55 54 59 58 62 62 64 68 71 69 68 67
41 44 46 48 52 57 62 64 65 69 69 62 62 62 68 66 59 57 58 54 55 59 59 56 55 54 55 57 57 58 63 63 64 66 70 71 71 70
43 46 47 40 55 59 64 63 67 68 77 72 66 71 70 70 62 62 58 53 60 61 57 54 54 56 57 60 60 63 59 62 63 64 64 63 64 68
45 48 50 53 59 64 64 67 71 59 76 80 74 69 72 72 75 75 74 71 55 55 53 56 57 61 64 62 61 61 61 62 62 61 60 62 62 64
50 53 54 55 59 64 62 68 65 78 82 81 80 84 81 70 74 82 74 67 63 48 54 58 62 65 62 61 63 63 64 65 65 63 64 67 69 71
54 50 52 55 50 50 52 69 76 81 89 91 92 88 76 75 82 73 75 68 65 64 66 68 76 65 64 65 63 65 67 66 64 64 67 69 70 73
62 61 56 56 53 48 48 50 53 69 94 98 90 82 78 77 68 69 75 80 84 69 77 80 67 68 66 67 67 66 65 67 67 68 69 70 70 70
62 59 55 42 60 63 61 56 58 58 62 70 83 84 83 69 79 86 88 93 89 74 76 80 68 71 65 57 65 66 68 68 68 64 66 66 66 67
58 58 63 66 66 59 65 85 82 83 83 75 76 70 68 67 71 83 80 80 78 70 69 88 73 74 67 68 70 70 70 68 66 63 64 67 66 68
61 64 66 69 62 56 67 89 83 85 72 62 60 62 64 64 61 66 84 89 87 76 70 80 81 86 78 75 68 70 64 63 65 68 70 69 68 68
69 69 67 58 58 58 64 77 79 74 72 79 74 68 62 69 64 68 81 95 93 91 76 93 89 90 91 90 82 75 72 71 71 70 70 70 71 76
77 75 68 63 62 62 60 68 65 58 64 66 61 63 64 68 70 74 81 93 96 94 75 84 95 91 94 92 82 79 76 76 77 79 76 76 77 79
71 72 74 66 64 62 60 58 58 60 59 62 70 76 82 86 85 85 85 89 89 94 87 92 96 95 95 92 88 78 80 81 86 90 90 83 80 78
70 68 68 66 61 62 60 60 60 66 68 79 86 88 87 88 90 91 88 89 91 90 89 88 95 94 96 95 92 88 87 83 84 89 94 90 89 86
73 86 65 60 61 63 63 63 65 67 76 83 87 86 87 90 91 89 94 91 94 88 82 86 90 93 96 94 93 92 85 93 86 88 86 85 84 83
66 69 67 67 74 69 68 68 69 70 83 86 91 90 88 88 88 86 90 93 96 92 90 84 84 87 90 93 96 89 88 89 87 86 88 94 87 84
65 69 76 79 79 75 76 77 80 85 87 90 91 91 93 93 92 90 91 95 95 90 92 89 89 91 87 82 81 93 91 91 88 88 88 94 90 82
74 85 86 84 84 84 88 92 93 89 91 93 94 93 92 93 91 92 92 94 92 90 89 88 94 96 95 91 72 66 93 94 90 91 89 89 93 86
87 89 88 86 87 91 92 94 92 90 91 91 93 94 95 96 94 93 92 94 93 91 92 88 90 95 97 95 95 84 75 94 97 95 92 87 84 77
84 86 85 89 91 92 92 92 93 93 92 94 93 95 94 96 93 92 92 88 88 93 94 90 86 79 92 94 94 82 76 73 80 93 95 97 93 87
83 86 87 91 93 94 94 93 93 92 93 93 94 94 94 94 95 94 93 95 93 93 93 90 88 92 94 96 93 90 87 80 76 77 79 84 98 97
88 89 92 93 93 94 94 94 93 93 93 94 94 93 93 94 91 93 93 93 94 94 95 93 87 87 88 94 95 95 91 86 84 85 81 75 78 80

GFSNE_sfc_rhum_048.txt.gz
RH
46 52 52 54 56 58 60 62 63 66 66 58 56 52 54 57 57 56 62 59 56 57 59 59 58 58 58 57 56 57 64 62 63 62 62 64 66 66
48 47 49 53 55 60 62 64 70 70 74 68 62 62 59 51 58 54 60 58 61 62 60 59 58 58 58 57 59 58 59 64 63 67 66 69 67 65
44 45 48 52 54 59 65 66 68 73 77 67 68 66 73 72 64 68 64 62 62 63 62 61 60 58 57 57 57 58 59 62 68 65 65 68 69 66
44 47 46 42 55 58 63 66 69 71 76 74 75 79 79 75 76 73 64 58 64 66 66 61 59 58 59 60 60 62 64 61 60 63 63 62 60 66
46 48 51 52 58 63 65 68 72 59 77 82 77 81 84 83 80 80 82 79 68 63 60 59 60 62 64 63 62 61 61 62 62 62 62 62 64 64
57 57 52 55 58 60 61 66 64 76 79 82 83 92 94 86 83 84 76 67 66 53 58 61 64 65 65 65 65 65 65 65 66 66 64 66 66 71
54 52 54 58 56 53 55 69 74 77 84 94 88 99 93 81 79 76 75 70 67 67 68 71 74 82 73 68 66 66 68 69 67 65 67 67 67 72
59 57 57 55 58 55 53 52 53 72 95 98 98 92 88 84 78 81 79 85 89 70 85 72 70 69 67 68 68 67 67 66 67 66 67 69 70 72
60 59 57 49 65 65 64 58 61 62 60 71 84 88 90 84 84 90 91 95 89 76 77 80 68 71 66 60 67 67 68 69 68 66 64 65 68 71
62 64 70 71 71 64 69 84 82 80 78 75 85 86 84 75 76 82 77 83 79 71 70 89 70 73 67 67 70 70 70 69 68 66 64 63 64 65
65 68 71 73 65 59 69 87 82 84 72 64 62 63 65 64 60 71 88 90 88 77 70 81 85 82 77 74 67 71 67 64 64 66 68 69 66 66
69 68 67 62 61 61 67 78 84 73 72 83 72 63 61 67 66 72 86 96 94 92 84 96 87 88 92 92 82 81 68 72 71 71 71 70 70 68
73 70 67 66 66 64 61 72 69 63 68 65 62 65 67 72 73 77 84 95 96 94 76 84 96 91 95 92 88 80 78 74 76 78 76 76 75 76
72 72 74 72 64 62 63 62 62 64 63 67 75 81 85 88 87 86 86 90 91 94 88 91 97 96 95 92 88 78 80 82 86 88 90 83 80 79
72 69 68 64 61 65 65 64 65 72 72 83 89 90 89 90 91 92 90 90 92 91 90 90 96 94 96 95 93 88 88 84 84 88 90 94 91 83
74 82 62 61 64 66 66 66 67 70 79 88 90 88 87 89 91 90 94 92 95 89 82 85 91 95 95 94 93 92 86 94 86 86 88 87 84 80
69 66 69 72 76 73 71 72 73 75 87 89 93 89 87 90 90 88 92 93 96 92 89 84 85 89 91 94 96 90 89 90 88 89 89 92 87 85
67 75 81 83 84 81 82 84 85 88 89 92 90 92 94 94 93 90 90 95 95 90 91 88 89 91 86 82 83 94 90 91 88 87 89 94 92 83
79 89 91 89 89 89 93 94 94 90 92 94 95 94 94 94 91 92 92 94 93 90 89 88 94 96 95 92 72 62 92 95 94 93 88 87 92 86
92 94 93 91 92 94 94 94 93 92 93 93 94 94 94 95 94 94 93 94 94 91 92 88 90 95 96 95 95 83 75 95 96 94 92 86 84 76
89 91 89 92 94 94 94 94 94 94 93 94 93 94 94 96 94 92 93 88 88 92 94 90 85 78 91 95 95 81 75 71 78 94 96 96 91 86
87 91 91 94 95 95 95 94 94 93 94 94 94 94 93 95 95 94 92 95 93 92 92 89 87 93 95 96 93 90 86 80 75 76 78 86 98 97
91 93 95 95 95 95 95 95 94 94 94 94 94 93 93 95 92 92 92 95 95 95 91 91 87 86 88 94 94 94 92 86 84 86 84 75 78 79

GFSNE_sfc_rhum_051.txt.gz
RH
59 54 50 50 51 56 61 61 60 60 65 59 57 54 56 59 60 62 65 61 60 59 61 61 60 60 59 59 58 57 57 58 60 62 61 61 66 67
63 53 52 52 52 59 65 66 68 66 69 68 62 62 60 52 61 62 66 62 62 63 62 61 61 60 60 58 58 57 57 56 58 65 66 66 68 66
47 44 48 50 54 57 63 66 67 75 77 70 70 66 72 72 67 71 72 71 69 65 65 64 63 61 60 59 58 58 60 64 65 68 67 71 63 66
46 46 46 40 52 55 59 63 67 72 76 76 77 78 79 76 77 82 66 60 66 66 68 65 62 61 61 61 61 62 65 68 67 62 61 65 64 65
75 65 64 69 65 59 62 70 72 60 74 84 80 84 85 85 87 86 84 79 70 65 62 63 63 64 65 64 62 62 62 63 63 62 61 62 61 60
76 80 68 60 66 62 62 66 64 73 77 82 81 91 91 88 94 90 80 74 70 56 61 64 66 65 64 65 66 67 67 67 67 66 65 64 62 66
59 55 58 61 56 57 59 70 73 77 82 92 89 97 92 93 87 77 85 77 76 74 73 78 78 77 74 70 67 67 68 70 68 66 66 67 66 69
63 60 55 52 63 59 57 56 57 75 95 98 97 96 93 91 83 88 87 92 89 80 89 75 72 71 67 68 68 68 68 67 67 65 65 69 68 70
57 59 57 53 70 70 68 63 63 61 60 72 88 90 90 85 88 92 93 95 86 74 77 81 70 72 65 59 67 68 68 69 68 67 64 67 67 68
62 67 71 75 76 68 74 84 83 80 78 75 83 84 85 82 84 88 83 83 79 73 78 90 74 73 66 67 70 70 71 69 68 67 65 63 63 65
64 69 72 77 67 62 73 88 83 83 68 62 61 65 67 64 61 71 90 93 89 78 73 81 85 81 74 72 67 71 68 66 64 64 66 68 68 68
72 69 67 64 62 62 69 80 86 75 74 83 70 64 62 67 67 74 89 96 94 92 87 95 88 92 92 92 94 80 68 71 70 71 71 69 69 70
76 75 71 67 66 62 62 75 72 66 71 70 67 69 72 75 75 78 84 97 96 94 75 86 96 92 94 91 91 82 77 74 76 77 75 75 75 76
75 76 78 72 65 64 64 65 64 67 68 72 79 85 88 88 88 88 87 90 91 94 88 93 96 96 95 92 88 78 80 83 86 88 89 84 80 79
74 70 70 65 64 68 69 68 68 76 76 86 92 92 91 92 92 93 92 91 93 92 91 91 96 94 96 94 92 88 89 84 85 88 89 92 93 91
76 76 63 64 67 69 69 68 70 73 82 91 93 90 89 92 92 91 95 92 94 89 83 87 91 94 95 93 93 92 86 94 88 88 88 88 87 84
69 68 72 75 80 77 76 77 78 79 91 92 93 90 89 90 91 90 94 94 96 93 90 85 86 89 91 93 95 89 89 90 88 89 90 92 87 84
71 79 86 88 88 85 86 88 87 90 91 93 93 94 94 94 94 91 92 95 95 92 92 89 89 91 86 83 85 94 90 91 88 87 88 96 92 82
83 94 95 93 93 93 95 96 96 92 94 96 96 95 95 94 92 94 93 93 93 90 90 88 95 96 95 92 71 62 94 94 94 94 89 90 91 85
94 96 96 94 94 96 95 96 95 94 94 94 95 95 95 96 95 94 92 94 94 91 92 87 90 96 97 95 95 83 74 94 96 95 92 87 84 77
91 93 92 95 96 96 95 95 96 96 94 94 94 95 94 95 94 93 93 88 87 90 94 89 85 78 90 94 95 81 74 71 81 98 95 96 92 86
89 93 93 95 96 96 96 96 96 95 95 95 95 94 93 94 95 94 93 94 92 93 94 90 85 88 93 96 93 90 86 78 74 77 80 90 98 97
94 94 95 96 96 96 96 96 96 94 94 95 95 93 93 95 92 92 94 93 94 93 90 89 86 85 87 93 94 95 92 86 83 85 84 76 79 80

GFSNE_sfc_rhum_057.txt.gz
RH
50 53 53 49 56 61 54 64 72 63 51 42 44 46 46 42 42 38 42 53 59 59 59 60 60 61 61 61 60 60 58 58 57 57 57 55 60 58
52 49 52 54 58 54 65 65 66 64 60 55 71 81 74 57 52 46 44 60 59 61 62 60 61 61 61 60 60 60 59 58 58 58 59 61 64 66
48 51 56 57 61 69 75 81 86 90 92 89 74 57 52 48 45 46 50 49 48 62 63 62 63 62 62 62 62 61 59 61 63 65 66 68 70 69
59 60 68 66 81 83 91 93 96 99 91 63 55 56 51 48 50 52 50 47 49 56 65 65 64 64 65 64 64 62 61 61 63 63 64 65 64 67
74 75 84 88 95 98 99 98 88 80 82 80 60 53 54 56 55 56 57 57 53 61 63 64 65 66 67 64 64 63 62 63 64 64 64 63 61 62
90 92 97 98 99 98 94 91 89 89 83 75 63 63 60 59 63 67 62 53 54 50 58 63 66 63 65 65 66 66 67 68 68 67 66 64 62 63
100 100 99 96 92 92 90 89 83 73 66 74 70 72 69 64 63 59 62 60 62 61 58 53 51 52 53 60 62 65 67 70 70 68 66 67 68 70
97 93 90 88 85 67 55 53 54 64 85 80 80 72 65 65 60 64 72 80 79 51 58 58 52 52 50 50 61 67 68 67 67 67 65 66 68 70
80 71 83 72 73 59 62 61 63 63 63 64 71 65 65 60 79 89 79 78 76 61 59 64 52 54 50 46 62 66 66 68 68 68 66 63 65 66
60 59 59 61 62 59 60 75 72 68 66 62 61 60 61 67 72 83 72 68 62 56 55 80 54 54 49 49 62 67 69 67 65 65 64 63 62 63
58 60 60 60 64 59 69 84 71 60 57 62 62 67 67 65 62 64 78 80 78 62 56 66 64 64 60 58 49 61 63 62 63 65 66 67 68 67
60 58 64 61 61 62 70 64 68 57 61 70 59 54 56 57 69 61 74 94 90 84 61 77 70 72 81 55 62 56 53 62 67 69 70 69 70 68
62 61 61 68 60 61 60 58 58 57 66 58 55 56 58 60 61 63 70 90 93 92 66 83 89 83 87 81 68 64 63 63 61 68 72 74 75 76
65 64 65 64 62 61 60 67 63 69 57 59 66 70 74 77 78 78 79 83 82 93 85 91 96 92 93 89 82 67 70 75 82 86 87 78 78 78
60 63 65 61 64 66 70 69 68 62 65 75 79 83 82 84 90 89 88 88 93 91 92 92 95 93 96 94 90 83 84 78 81 87 84 85 86 79
63 60 58 64 69 68 65 64 63 64 72 77 80 77 79 86 87 84 91 89 93 86 83 90 93 95 95 90 91 88 82 93 84 85 84 83 77 72
64 55 60 64 67 66 67 67 68 69 77 77 84 84 82 84 86 85 90 92 94 92 89 83 81 84 89 94 95 85 84 85 85 87 86 90 84 77
58 65 69 72 74 73 74 73 73 78 78 85 86 87 91 92 92 90 88 93 94 90 91 88 88 90 84 80 85 92 87 88 86 87 90 96 90 78
66 74 78 79 80 81 82 85 88 82 91 92 92 92 92 92 93 91 90 90 90 87 89 88 93 96 95 90 70 65 97 90 87 86 82 86 91 85
76 81 83 82 82 85 87 90 89 88 89 91 92 93 94 94 94 93 92 93 92 89 88 86 89 92 97 96 95 82 75 95 93 91 90 85 83 77
79 82 81 83 85 88 89 90 92 93 94 94 92 94 93 94 93 91 91 87 87 89 92 88 84 75 90 92 92 77 74 72 85 98 94 94 89 84
79 82 82 85 88 91 92 92 93 92 93 92 93 94 92 93 94 92 89 92 88 87 90 87 86 88 93 94 91 87 80 75 72 76 85 94 98 97
81 82 85 88 90 91 92 92 93 93 93 94 95 92 93 94 88 89 89 90 90 92 88 86 81 82 87 87 87 87 87 83 78 81 80 74 78 80

GFSNE_sfc_rhum_060.txt.gz
RH
80 76 64 55 53 55 56 65 71 73 69 64 55 50 60 59 52 60 55 54 54 58 59 59 60 61 62 62 62 61 60 59 59 58 58 58 57 58
77 80 86 77 67 57 62 68 67 76 80 78 81 84 83 79 78 68 56 51 54 56 60 61 61 62 61 61 61 60 60 60 59 60 59 63 64 64
80 72 81 78 74 74 77 82 86 84 87 96 97 95 94 86 60 44 46 43 38 50 55 59 60 63 63 63 62 62 61 61 60 60 65 66 66 66
64 66 70 73 86 90 94 95 96 99 96 96 94 92 80 70 67 59 50 41 41 48 56 60 64 65 64 65 64 64 63 62 61 60 63 63 60 60
72 76 80 84 92 97 98 98 98 97 94 90 74 67 74 73 67 50 45 45 41 50 52 55 58 61 63 65 64 64 64 64 63 63 64 64 64 63
86 89 93 97 99 100 100 100 98 87 83 82 75 68 56 51 53 55 51 46 44 38 48 53 58 59 62 64 63 65 66 66 67 67 66 65 65 64
99 99 100 99 97 94 86 84 81 80 77 76 65 61 60 51 50 49 50 47 50 51 48 44 42 44 46 50 52 56 57 61 65 67 66 64 64 66
98 97 94 86 80 76 74 71 62 62 78 74 71 57 51 48 47 50 58 67 73 48 48 50 45 45 44 42 50 56 62 65 66 67 67 65 63 64
72 71 66 71 73 58 62 59 57 60 61 59 58 54 53 50 74 82 70 74 74 56 51 58 46 47 43 38 52 57 61 65 67 68 67 65 63 62
54 52 51 54 54 55 52 62 63 59 58 53 54 51 51 52 59 78 72 62 56 50 48 72 50 51 46 45 56 59 61 62 64 65 65 64 63 64
56 53 50 48 57 60 60 81 60 54 48 54 59 63 66 67 63 60 72 75 72 60 52 61 59 61 59 58 50 55 58 61 64 65 66 67 68 67
48 48 59 58 60 60 60 56 60 49 50 61 52 50 49 48 59 60 66 87 87 83 56 74 70 71 80 56 60 54 52 59 62 64 66 68 68 65
52 50 51 65 62 61 60 51 52 52 57 55 47 46 48 50 53 54 60 83 91 90 65 82 85 81 86 82 68 66 65 64 61 67 69 72 73 74
53 50 52 63 61 60 59 63 64 65 51 50 55 60 65 71 74 75 76 81 79 89 85 91 94 90 93 89 82 69 72 76 83 88 90 77 75 73
52 60 61 59 61 58 63 68 68 54 54 63 70 76 78 82 88 87 94 93 90 90 90 92 94 92 93 93 90 81 83 80 83 88 87 88 87 82
61 53 53 62 65 64 57 53 53 54 61 68 70 70 73 81 82 81 87 86 89 86 98 94 93 94 93 88 91 87 82 93 85 86 84 84 79 72
64 42 46 49 53 52 54 55 57 58 67 68 76 77 76 78 81 82 85 88 94 89 87 85 88 88 92 95 94 85 84 86 86 87 88 90 84 78
47 48 53 57 59 58 60 61 63 69 69 77 80 82 85 87 87 86 89 92 90 84 85 86 86 84 85 81 82 90 87 86 87 88 90 94 89 78
51 59 64 66 68 69 71 76 80 75 86 87 87 88 88 88 89 89 88 88 87 83 85 86 92 94 95 90 70 65 90 92 87 86 84 86 90 84
63 68 71 70 71 75 78 83 84 82 83 84 87 87 90 92 92 91 89 91 89 87 87 85 89 92 98 95 95 82 75 88 90 90 88 84 82 76
65 69 68 72 76 80 82 83 86 88 88 89 88 89 89 93 91 90 89 84 82 86 88 84 87 74 88 93 94 77 73 76 78 94 92 93 89 82
64 68 70 74 80 84 86 87 88 88 88 88 88 88 88 88 89 89 86 91 85 86 85 87 88 90 94 93 91 86 77 72 71 74 77 82 96 95
66 68 72 78 82 85 86 88 89 89 88 89 89 88 87 89 84 84 88 86 86 88 84 92 85 85 85 94 85 83 83 79 76 80 79 72 76 77

GFSNE_sfc_rhum_063.txt.gz
RH
94 90 84 86 90 90 92 94 96 96 91 84 62 56 67 67 66 67 72 75 67 58 58 58 58 60 62 62 62 62 62 61 60 60 59 58 57 57
93 88 87 85 86 86 86 85 89 90 88 82 88 88 87 80 84 84 80 74 63 54 54 55 58 61 61 62 63 62 61 61 61 60 59 58 60 64
87 91 89 88 92 90 92 92 91 92 95 96 97 97 98 97 85 68 63 52 50 53 54 53 56 59 61 64 63 63 62 62 61 60 59 59 57 63
82 84 87 83 89 89 93 95 97 99 97 100 98 98 94 92 75 66 57 48 47 46 53 56 60 62 63 64 64 64 63 63 62 62 62 61 60 59
79 80 85 88 94 96 97 98 97 94 98 95 90 78 76 75 75 69 58 50 41 48 48 47 51 56 60 63 64 65 65 65 64 64 64 64 63 63
83 85 89 94 99 100 99 99 98 98 89 79 76 79 78 71 64 62 63 58 54 38 46 52 54 54 56 56 57 58 60 61 63 64 64 64 64 64
99 98 100 95 93 90 86 87 86 81 81 85 80 76 72 66 64 60 62 60 60 60 60 59 59 57 55 53 51 52 53 55 59 62 63 63 62 62
98 98 90 81 76 75 74 69 65 72 88 86 86 72 63 59 58 65 80 78 78 65 66 65 59 57 55 54 51 52 55 57 60 62 64 64 64 61
96 96 84 77 65 58 61 59 58 57 60 66 69 64 62 62 89 91 80 78 72 66 66 68 60 60 56 45 53 56 58 60 62 63 64 65 65 64
58 50 50 52 54 56 53 68 70 65 65 57 64 61 62 61 64 77 81 77 68 63 63 79 64 65 59 57 58 60 60 62 62 63 64 66 66 65
51 52 48 47 60 61 66 85 69 63 47 52 54 59 61 63 65 74 84 86 82 73 68 77 78 76 72 69 64 60 57 58 60 63 64 65 65 64
47 49 60 62 62 61 62 64 69 58 60 68 64 59 57 56 52 66 82 91 85 90 81 91 90 86 96 82 86 73 67 64 63 63 64 65 64 66
56 53 54 63 63 62 61 62 60 58 62 66 61 58 58 62 66 67 71 93 88 89 77 87 97 92 90 89 85 84 77 76 76 76 70 71 71 71
53 53 56 65 60 60 63 60 63 66 65 60 66 74 82 86 80 82 80 86 84 91 86 90 97 92 94 90 89 80 79 81 86 90 90 80 76 71
56 64 59 55 58 60 58 66 67 64 63 75 84 89 77 80 84 86 84 90 90 89 87 90 96 94 97 95 93 87 86 82 84 89 93 88 88 87
59 60 49 58 59 63 61 57 60 61 70 79 84 85 86 80 83 82 87 85 92 85 85 87 93 97 96 93 93 91 84 94 86 87 86 87 84 81
66 50 47 52 59 57 58 61 64 64 77 82 78 78 79 79 81 85 86 91 96 92 84 82 85 88 96 96 96 87 87 91 90 90 90 93 88 85
59 46 56 63 65 63 65 67 73 72 74 77 82 83 87 86 87 88 88 94 94 88 88 86 85 88 91 87 83 92 88 89 86 86 86 94 89 80
53 63 71 73 75 77 80 78 80 77 88 92 93 91 87 86 88 91 86 92 92 85 86 85 89 94 96 92 79 67 83 80 82 86 85 88 94 87
64 74 78 77 78 80 78 85 84 86 87 90 90 91 91 95 93 89 90 93 92 89 90 84 88 90 98 95 95 84 75 88 89 91 90 85 82 75
68 74 74 79 80 79 87 85 86 88 92 94 93 92 90 95 93 87 88 84 88 92 92 84 81 74 84 88 96 85 74 77 80 85 91 96 94 91
65 71 76 82 81 85 85 90 87 88 92 90 92 94 94 95 94 91 91 93 91 91 90 85 81 86 97 96 91 87 82 78 72 72 74 79 96 97
69 73 79 84 82 83 85 93 94 94 92 93 94 93 93 95 91 92 92 89 92 92 89 87 86 90 88 90 86 88 88 86 76 78 78 71 74 78

GFSNE_sfc_rhum_069.txt.gz
RH
99 99 99 96 97 98 98 97 90 100 95 97 97 96 96 96 94 94 90 84 79 77 74 68 68 66 61 60 61 61 61 61 60 60 58 58 57 56
98 96 96 96 96 98 98 98 99 98 99 96 97 97 96 92 92 94 91 86 77 73 72 71 64 58 57 56 58 60 60 61 60 59 57 56 57 59
93 94 96 93 96 96 97 98 99 98 99 99 98 98 99 97 94 93 86 82 76 70 64 59 55 55 56 58 60 61 61 61 60 60 60 57 56 58
92 92 93 88 96 96 97 99 99 100 99 100 100 100 96 93 90 89 77 60 64 58 57 54 53 54 52 53 57 59 61 62 62 59 61 61 60 58
91 92 94 93 98 96 97 98 98 94 97 96 97 94 93 89 90 80 75 80 66 63 55 48 49 52 56 58 58 58 57 58 59 60 60 61 61 61
93 94 95 96 99 100 99 100 97 95 90 87 84 85 82 83 88 88 81 78 75 52 53 56 54 58 59 58 56 57 56 56 56 57 57 58 59 60
98 98 99 94 89 91 94 99 97 92 93 92 89 92 92 87 87 84 81 82 80 78 80 78 75 78 76 69 62 60 60 58 57 57 58 58 59 58
99 100 100 98 96 92 94 94 76 82 91 93 98 90 82 79 79 88 95 92 92 81 82 77 78 81 80 79 67 60 58 60 61 60 61 60 60 60
97 96 87 80 84 84 76 67 59 57 62 78 86 85 79 79 90 96 86 96 92 84 89 91 84 84 82 65 64 63 62 63 64 63 63 60 59 59
82 78 78 78 68 71 80 82 80 77 74 65 80 79 78 79 81 87 91 90 91 88 89 99 91 85 83 84 70 65 62 60 60 63 65 66 62 63
71 73 76 77 62 63 81 84 84 71 50 52 52 52 57 58 65 93 96 97 97 92 87 97 96 95 92 91 84 66 66 64 65 68 68 68 66 66
72 68 59 69 63 63 79 82 81 75 78 82 79 76 68 68 56 80 94 96 99 98 93 99 99 90 97 97 95 80 88 74 69 68 72 71 71 72
69 72 75 64 60 57 59 80 73 72 80 86 80 79 81 88 88 86 85 95 98 88 76 95 99 91 97 94 89 96 90 87 81 82 78 74 75 74
73 82 80 58 56 57 65 61 65 74 85 78 80 91 94 95 88 90 88 92 93 94 90 96 98 98 96 92 89 86 90 84 91 94 95 84 78 74
70 68 56 51 57 67 62 61 63 78 79 95 98 97 94 96 94 84 91 93 95 94 93 94 97 95 97 95 93 88 89 95 90 93 96 94 94 91
71 81 61 52 53 61 63 66 71 76 87 97 97 98 94 83 92 94 96 95 96 93 94 94 93 95 96 95 95 93 87 96 87 87 90 91 89 89
71 73 58 64 74 74 75 77 80 80 93 93 91 83 81 86 91 93 94 96 97 94 88 95 90 91 91 92 96 90 89 89 88 90 90 92 88 87
72 68 73 92 92 82 83 86 88 75 77 90 92 93 95 96 95 95 97 97 96 93 92 88 92 94 91 88 87 94 89 94 90 92 94 97 91 84
72 88 97 97 97 97 97 98 82 86 96 97 97 97 97 97 92 94 95 96 94 92 92 90 95 97 96 93 77 65 88 89 87 90 88 92 94 87
90 93 92 94 96 97 97 82 92 94 95 96 96 96 96 97 96 96 96 96 94 92 93 92 98 96 96 94 95 84 76 90 92 91 92 86 83 76
86 91 93 96 96 97 92 87 93 96 94 97 96 96 95 97 97 97 97 87 87 94 94 91 87 75 88 92 96 86 77 74 80 89 88 94 90 86
83 88 89 95 96 97 96 88 92 92 92 94 94 95 96 97 96 95 95 96 94 94 93 89 87 92 95 96 91 87 83 79 72 75 77 81 91 95
86 88 93 94 97 97 98 90 89 90 93 94 94 96 96 96 94 95 94 93 93 94 92 92 89 88 89 88 87 88 88 84 80 82 84 72 74 75

GFSNE_sfc_rhum_072.txt.gz
RH
99 99 99 97 97 98 98 98 97 99 99 97 96 96 97 98 95 96 96 88 87 86 86 83 81 76 70 69 64 62 61 60 60 59 59 58 57 56
96 97 96 95 96 97 98 98 98 98 99 96 98 99 97 97 95 95 94 91 89 88 84 78 74 75 67 63 60 59 60 60 60 60 58 56 56 57
92 93 94 92 96 96 97 97 98 98 100 99 98 98 99 98 97 96 95 96 93 82 79 78 71 61 57 57 58 59 59 60 60 60 57 56 55 54
91 92 94 89 97 96 96 98 98 99 98 100 100 99 98 97 97 97 87 77 77 72 74 60 57 55 56 54 54 58 59 60 57 58 57 57 58 58
91 93 94 92 95 96 97 97 97 93 98 96 99 99 99 95 94 86 82 79 64 64 60 57 52 51 53 56 59 59 58 59 60 60 60 60 60 60
93 92 93 95 98 99 99 99 95 95 93 92 93 91 83 84 81 80 80 80 76 54 54 58 57 56 59 61 60 59 59 58 59 59 59 59 59 59
98 97 98 90 85 88 90 94 91 92 93 94 92 91 86 84 86 87 85 82 78 80 80 78 77 78 78 70 67 63 62 63 61 60 60 60 59 60
99 100 96 91 85 80 79 80 77 95 95 97 95 92 87 87 89 90 96 95 91 84 86 86 84 86 83 83 69 65 62 61 62 63 63 62 62 61
95 94 87 76 78 80 69 63 68 61 66 85 90 89 84 82 92 96 87 97 93 86 92 94 87 85 83 69 67 65 65 65 64 62 63 64 64 66
82 80 80 82 77 83 88 89 88 82 79 70 84 85 82 83 82 86 90 91 91 88 92 99 93 89 85 85 73 65 61 62 64 65 68 67 65 64
77 80 80 83 65 69 81 84 81 71 55 62 62 57 59 59 73 94 97 97 95 92 91 97 96 97 95 93 86 67 65 66 67 69 68 69 70 68
73 69 65 70 63 61 79 83 82 76 82 82 80 72 71 73 64 85 95 97 98 97 93 99 99 97 97 95 96 82 82 74 68 68 69 71 70 76
68 74 75 66 58 56 60 78 74 75 82 85 79 82 84 91 91 90 86 94 98 94 79 95 98 94 98 95 98 95 95 84 83 82 79 76 74 75
70 78 80 58 54 57 66 61 64 75 81 79 84 94 95 96 86 83 86 93 95 96 90 94 98 98 97 93 93 96 93 92 96 96 96 85 81 77
70 71 64 53 55 64 62 61 66 77 78 96 98 97 98 97 96 84 90 92 93 93 92 95 97 95 98 96 95 89 92 96 91 96 98 97 95 94
71 84 61 54 54 63 65 69 72 78 88 97 97 98 95 89 89 95 98 96 97 94 93 94 98 98 96 94 96 94 86 95 96 92 93 94 91 91
72 70 60 69 77 77 79 80 85 84 96 84 90 90 89 91 92 95 95 96 98 95 92 84 90 94 96 97 97 91 88 86 85 91 93 93 89 88
73 71 75 95 94 84 85 87 89 82 82 93 94 95 96 96 96 95 96 98 97 95 95 95 91 98 93 92 86 93 91 90 89 92 93 97 89 84
74 87 95 97 97 97 98 98 97 87 96 97 97 96 96 96 92 95 95 98 96 96 94 94 98 100 97 95 89 64 88 95 93 90 90 93 93 87
91 94 92 91 95 97 97 98 87 91 96 96 96 96 97 97 96 97 99 97 95 94 94 96 97 96 96 93 94 82 72 88 92 94 91 87 86 78
85 89 88 93 95 97 96 96 88 94 93 96 97 96 95 97 97 98 97 88 89 94 95 93 89 76 93 96 96 84 78 73 79 89 88 94 89 79
88 87 86 92 95 96 96 97 96 92 92 94 95 95 94 97 96 96 95 96 93 93 93 90 89 98 99 96 92 89 81 76 74 75 77 82 90 95
86 86 91 93 94 95 97 98 97 94 91 94 94 92 92 96 95 94 94 93 94 94 92 92 89 89 92 93 90 88 83 85 83 85 83 71 75 78

GFSNE_sfc_rhum_075.txt.gz
RH
98 97 98 97 97 97 98 98 98 99 98 96 94 98 97 98 96 98 98 90 86 85 85 85 89 88 84 81 77 81 70 64 62 61 60 58 58 57
95 95 95 95 97 96 97 97 98 99 99 96 99 98 97 95 96 96 96 92 89 89 88 88 87 81 80 80 72 67 62 60 61 60 59 58 57 56
92 94 94 93 95 96 96 97 98 98 100 99 98 97 99 98 98 96 96 96 96 88 84 84 85 82 77 68 62 59 60 60 60 59 59 58 55 54
92 92 93 88 95 94 95 97 98 98 98 100 100 99 98 97 98 98 92 86 90 84 86 86 86 78 69 60 57 55 58 59 59 59 57 60 58 57
91 91 91 90 95 96 96 98 98 92 97 95 99 98 99 99 97 94 93 92 91 84 71 69 62 57 53 54 56 58 60 59 60 61 61 61 61 60
94 92 92 94 97 99 98 98 94 95 94 94 95 97 94 97 87 89 94 80 75 55 56 59 60 58 57 59 62 63 62 62 60 60 60 60 60 60
96 92 93 87 82 85 91 95 93 95 91 94 91 90 86 82 83 85 82 84 81 84 83 80 78 78 78 71 68 65 63 62 63 63 62 61 61 57
97 95 91 85 80 71 70 67 76 86 91 97 98 92 89 90 92 92 96 96 92 86 89 88 88 85 84 84 69 66 65 63 63 64 63 60 60 60
95 94 81 75 82 85 75 75 75 69 72 88 91 90 87 87 93 96 88 97 91 87 93 94 90 88 83 71 71 68 66 66 66 64 61 65 66 66
85 82 87 88 84 82 83 88 86 70 79 72 84 85 83 83 82 86 91 91 91 89 93 99 94 90 88 87 73 66 63 64 64 65 66 68 67 66
72 82 81 83 65 66 80 85 79 71 61 66 67 63 62 65 76 95 84 98 94 91 92 97 97 98 94 92 84 68 65 65 66 67 68 68 67 67
73 69 70 72 61 58 79 82 84 77 86 84 80 72 75 82 71 90 96 97 98 97 93 99 99 98 97 95 96 83 82 70 66 66 67 69 70 68
68 75 73 64 56 56 64 77 75 78 84 84 80 84 88 91 92 90 85 95 99 97 88 94 99 96 98 98 97 97 97 86 85 83 77 76 75 78
68 76 79 66 53 58 66 62 63 72 80 80 88 95 96 97 93 83 83 93 94 96 91 97 98 98 98 93 96 97 97 94 96 96 97 84 81 75
69 72 65 58 54 65 60 61 68 78 80 96 98 97 98 98 97 93 89 92 95 94 92 94 97 97 98 95 94 86 86 97 91 97 98 98 95 97
71 86 65 56 55 64 66 70 73 78 90 97 98 97 96 89 90 95 98 96 98 96 92 93 97 98 97 97 92 90 86 96 95 92 96 94 94 94
75 68 61 71 79 78 81 83 86 85 96 97 91 87 86 92 93 96 97 98 98 99 98 96 89 92 96 97 96 88 86 87 90 86 94 95 91 89
75 77 76 94 96 85 86 88 91 88 95 94 95 95 96 96 96 96 97 98 97 98 99 98 98 94 97 90 85 93 89 89 92 93 95 97 90 84
78 87 88 90 94 96 97 98 97 96 95 96 96 96 96 96 93 97 97 100 97 98 98 98 100 100 97 95 89 64 97 92 98 92 88 89 92 88
89 93 88 87 89 95 96 98 97 96 97 95 96 96 97 97 96 97 99 99 97 95 95 97 99 98 96 94 94 84 70 88 90 92 92 89 86 77
92 87 87 89 91 94 95 96 97 97 95 91 94 96 96 96 94 97 98 90 88 94 95 94 90 77 95 97 96 86 78 69 75 90 91 94 87 85
92 93 90 92 93 94 95 96 98 97 97 96 94 93 94 95 95 94 94 96 94 95 94 91 92 98 100 96 92 90 85 78 73 71 73 78 91 97
86 89 92 93 94 94 96 97 97 96 96 96 96 95 92 94 90 92 93 93 93 94 93 94 92 97 92 93 91 92 89 85 80 83 82 72 73 78

GFSNE_sfc_rhum_078.txt.gz
RH
97 96 96 95 95 96 97 99 99 99 96 96 97 96 97 98 96 97 98 91 88 85 85 87 90 88 88 87 84 80 80 81 81 73 72 70 62 58
94 93 94 94 96 97 97 96 97 99 99 98 98 98 98 94 94 95 96 94 92 90 91 89 88 87 87 82 81 78 75 71 66 67 64 59 57 56
92 92 94 92 95 95 96 96 97 98 100 99 97 96 98 97 96 94 95 95 95 90 86 83 82 84 84 79 77 72 70 70 66 61 58 58 57 56
91 92 93 86 94 94 94 96 96 96 97 100 99 98 98 97 98 97 91 85 91 86 82 80 82 81 78 73 67 65 62 59 59 58 58 57 57 57
90 94 91 90 94 95 96 96 95 96 96 96 99 97 98 98 98 96 94 94 89 84 79 73 71 66 63 57 55 56 58 59 60 60 61 62 61 59
93 94 91 92 96 98 96 96 94 96 95 97 94 95 91 93 87 92 91 80 76 55 58 61 62 61 63 60 60 62 64 62 63 60 60 61 60 59
92 86 87 86 80 85 90 94 92 94 97 98 98 97 94 91 90 92 87 85 83 85 81 78 77 79 78 71 69 64 62 61 61 62 62 60 58 59
94 93 91 84 80 65 69 68 77 89 93 98 99 93 90 92 93 92 96 96 93 86 90 86 90 84 83 84 68 65 63 64 64 63 64 63 58 60
94 94 86 81 84 86 77 75 71 69 73 87 89 91 88 88 93 95 88 97 91 86 94 94 90 88 83 72 70 67 66 65 65 65 62 59 63 66
87 86 89 89 84 80 80 86 78 74 78 73 83 86 85 85 83 86 91 91 93 90 94 99 95 89 88 85 72 72 65 65 64 64 64 66 67 67
71 85 81 84 62 68 78 83 78 72 67 68 68 66 67 66 80 92 95 98 96 90 94 98 97 97 93 90 82 68 64 65 63 64 65 66 68 68
74 70 70 74 59 58 79 80 82 78 90 84 79 73 82 83 75 91 97 98 98 96 92 98 99 98 97 94 94 81 80 68 64 65 66 69 70 82
68 74 70 60 55 56 69 80 81 83 83 81 80 88 90 92 93 90 85 95 98 95 84 96 98 93 90 98 97 97 95 85 81 85 80 77 74 76
68 77 81 71 53 56 69 62 63 70 78 82 88 95 96 97 96 94 83 91 94 95 91 97 98 98 98 94 94 95 96 92 97 98 97 85 81 77
68 71 65 58 55 66 59 61 68 78 81 96 97 97 98 98 97 88 91 90 93 93 93 95 97 97 98 95 94 88 83 91 88 97 98 98 97 95
70 89 65 57 56 66 67 70 74 79 91 97 98 97 96 93 94 94 98 97 97 96 92 93 96 98 97 95 95 94 86 95 96 90 91 86 96 93
79 73 62 68 78 79 81 83 86 86 97 98 98 97 87 91 94 97 98 98 98 99 98 95 92 95 96 94 97 93 92 91 88 85 93 96 92 91
80 82 80 90 94 84 86 88 91 89 97 98 98 95 95 96 95 96 97 98 97 97 98 97 98 97 96 90 88 94 94 94 90 89 96 97 92 81
85 94 91 89 91 94 97 98 97 96 97 98 98 97 96 96 90 96 98 98 97 98 96 97 100 99 99 96 86 65 96 98 98 96 94 92 93 86
89 88 88 89 91 94 95 97 97 97 98 98 98 97 96 96 96 97 99 98 97 95 95 98 100 98 97 95 96 84 69 88 89 92 91 90 87 77
94 92 87 90 92 93 94 96 97 98 98 97 98 97 98 97 95 95 98 86 87 94 95 92 89 78 97 97 97 87 80 71 76 89 94 94 91 84
92 93 94 94 94 94 94 95 97 97 98 98 97 98 98 98 96 95 91 95 92 94 94 91 91 98 99 96 93 90 85 79 74 72 72 76 91 96
82 85 91 93 94 95 96 96 96 95 96 96 96 97 97 97 96 94 93 88 93 94 93 93 92 98 95 95 92 92 89 87 83 85 82 70 72 74

GFSNE_sfc_rhum_081.txt.gz
RH
92 90 91 90 88 90 92 94 94 93 91 85 89 82 86 87 90 88 88 91 85 85 91 88 87 87 86 87 85 85 83 82 83 80 77 77 77 76
85 83 86 90 86 86 88 85 87 92 97 93 92 87 88 89 90 91 91 91 88 87 88 87 85 82 80 79 82 83 82 80 75 74 75 74 72 69
83 83 86 84 85 86 87 86 88 93 97 97 91 87 92 93 90 89 88 89 91 86 84 82 80 80 84 83 80 78 77 76 75 74 70 62 58 57
85 85 84 80 87 86 87 87 88 90 91 100 94 91 92 90 91 88 85 78 85 84 82 81 81 77 76 74 71 69 67 64 62 60 57 57 56 55
82 82 81 80 85 84 86 85 84 82 85 84 94 87 95 95 91 88 84 83 72 75 70 68 66 63 63 67 58 56 56 58 58 60 60 60 60 59
84 81 80 82 84 90 88 86 81 81 82 81 82 82 78 73 70 69 66 59 58 49 56 62 61 62 62 61 60 60 63 64 59 62 61 60 60 59
84 78 84 83 80 76 74 75 72 70 73 77 73 74 67 62 63 63 59 56 55 58 50 47 48 49 48 55 60 63 62 61 61 61 61 62 58 57
93 93 88 79 76 72 70 68 68 64 81 81 77 64 62 61 60 61 64 61 60 58 58 50 57 52 53 53 64 64 62 61 62 64 63 62 62 57
88 87 77 68 68 67 70 71 71 67 66 60 59 62 61 62 76 81 68 69 60 59 63 56 55 54 54 52 68 66 66 66 65 65 65 62 58 60
68 70 70 71 69 61 61 69 66 67 65 58 58 60 62 63 63 75 71 71 66 62 65 74 60 57 55 54 68 72 68 64 62 63 64 65 66 67
65 63 62 62 59 66 62 72 59 58 65 68 65 67 68 63 68 70 74 80 68 61 66 72 69 69 64 60 55 67 66 65 63 62 63 64 66 67
54 58 67 60 56 69 55 56 62 60 75 64 56 57 69 70 77 66 77 89 83 79 71 81 74 73 83 62 66 56 53 61 64 65 65 69 71 64
53 54 55 56 54 59 63 64 68 66 65 58 58 63 66 69 68 66 70 89 89 85 69 84 90 78 78 78 68 67 64 59 60 65 73 73 71 72
53 60 64 69 53 56 63 63 69 66 57 60 65 70 75 78 78 78 76 79 79 91 82 94 92 89 88 84 79 68 69 71 82 88 86 79 78 76
57 61 64 56 55 58 58 62 70 59 60 70 74 80 82 84 88 84 85 89 93 91 90 89 90 89 92 90 86 77 82 76 79 86 86 85 85 77
63 69 61 54 61 61 61 62 59 59 64 70 76 76 78 84 79 79 85 82 87 83 87 88 89 92 90 85 87 87 77 90 82 82 78 79 76 69
72 65 52 49 56 59 63 64 67 68 75 75 80 78 76 77 78 82 87 88 91 88 86 81 81 82 86 93 93 83 82 83 84 85 82 85 83 72
72 68 65 58 56 56 62 63 69 72 73 79 80 82 84 85 85 85 88 92 90 86 88 85 86 85 82 78 84 88 82 85 84 84 83 91 89 72
74 77 76 70 66 66 69 74 77 75 88 88 87 87 87 87 85 86 84 88 88 86 87 87 91 94 94 91 68 69 93 85 83 82 77 80 87 79
80 81 79 72 69 72 73 78 79 79 85 87 90 91 91 89 88 87 86 92 88 87 88 87 93 94 94 90 90 77 69 86 81 83 83 76 76 74
80 81 77 77 77 79 78 80 83 83 87 89 89 92 91 92 90 86 82 82 82 85 90 86 83 76 92 92 92 78 73 71 75 88 87 87 85 76
76 78 79 82 82 84 85 86 87 86 88 88 90 91 91 92 93 89 84 86 80 84 88 87 83 88 93 91 88 85 76 68 66 70 71 76 90 91
75 77 80 82 82 83 86 88 89 86 87 88 87 87 89 90 84 82 83 83 84 84 86 87 82 82 90 90 90 87 87 83 73 76 77 70 72 73

GFSNE_sfc_rhum_084.txt.gz
RH
90 86 84 81 86 87 88 87 88 92 87 77 75 73 77 83 88 85 88 90 84 88 87 87 87 87 87 85 85 86 88 86 86 83 79 80 79 76
79 77 79 80 81 75 78 75 80 82 78 85 86 80 77 77 84 85 87 88 87 86 85 83 82 80 79 81 81 82 83 84 82 78 75 74 74 72
72 72 76 74 72 73 77 76 78 82 90 93 86 81 83 85 81 82 83 84 86 84 81 79 79 80 79 78 78 77 76 76 73 71 69 68 68 66
75 76 75 70 76 75 75 80 79 81 84 95 87 84 85 80 80 78 74 66 74 78 77 76 75 74 73 73 71 69 67 65 63 62 60 59 58 57
74 72 71 70 76 75 77 77 77 73 75 76 85 79 84 82 76 71 66 66 53 53 57 66 67 67 65 66 62 57 57 57 58 60 60 60 60 60
73 70 70 73 77 84 82 78 72 71 72 73 73 74 66 63 58 59 56 49 48 40 50 52 55 57 57 61 63 64 66 65 62 58 62 62 61 60
79 78 80 77 74 70 65 64 61 60 66 73 69 69 60 53 54 50 49 46 46 47 42 38 40 40 39 44 48 57 59 58 58 60 61 60 61 60
98 92 77 80 71 71 68 68 57 53 67 70 64 48 49 48 46 50 56 54 53 49 46 40 44 41 43 44 64 63 61 60 59 59 62 60 59 60
91 78 60 55 56 56 64 66 67 67 61 46 45 45 47 51 74 76 59 61 52 47 51 46 43 43 46 41 61 66 66 65 65 64 64 62 61 60
57 57 56 58 56 48 46 59 59 56 53 45 48 50 54 56 55 68 61 58 54 50 54 69 48 48 45 44 56 67 75 66 62 61 65 66 66 66
49 51 50 50 67 56 53 63 47 53 65 67 65 68 66 63 59 59 69 73 62 51 56 64 61 62 57 53 49 69 66 67 65 64 64 64 65 67
51 57 68 52 56 64 42 42 49 47 58 54 49 55 56 67 71 57 66 90 80 78 64 78 72 70 83 58 61 56 53 58 62 65 67 67 68 63
42 39 43 55 54 63 52 50 54 53 60 48 47 50 53 57 57 57 62 89 88 85 70 79 87 79 79 76 66 63 61 59 56 62 66 70 71 70
40 41 46 66 55 58 60 60 70 66 47 48 53 56 62 68 73 72 71 75 70 89 78 96 90 88 88 85 78 65 66 69 80 88 86 75 74 75
42 45 62 62 60 56 57 64 68 57 50 58 63 73 76 80 91 88 85 90 99 92 96 98 88 88 91 90 86 77 79 76 82 88 85 85 84 76
62 60 57 50 54 49 53 58 60 50 52 60 65 66 71 82 79 78 84 82 86 82 98 99 94 90 90 86 88 86 79 88 82 83 81 79 71 66
53 55 52 39 41 44 47 48 50 53 62 63 71 73 72 75 76 77 83 84 87 85 83 79 80 81 84 90 90 79 77 81 86 83 81 84 80 71
63 56 51 48 43 38 42 45 50 58 60 68 73 75 79 80 80 79 82 88 88 82 82 80 80 82 79 77 83 86 78 80 83 81 79 91 85 73
66 60 60 60 56 53 54 58 65 60 87 83 81 82 82 81 80 79 81 82 83 80 80 81 86 89 92 88 64 75 88 81 79 78 74 79 85 79
66 67 70 69 64 62 64 69 70 68 76 77 80 82 83 84 83 81 79 81 81 80 81 81 87 89 92 89 87 77 70 83 79 80 83 76 74 69
71 74 72 73 72 72 73 74 76 78 78 81 81 83 83 84 82 80 78 73 73 77 82 80 80 70 90 90 89 76 70 71 77 88 85 84 82 75
64 69 70 74 77 81 83 80 82 82 82 81 83 82 82 81 83 80 75 79 74 75 80 81 79 85 93 90 89 83 74 65 64 66 70 77 90 90
68 69 74 78 82 84 83 82 84 82 81 84 84 82 82 84 77 74 73 72 76 78 79 83 79 82 90 90 86 85 83 80 69 72 73 64 69 73

GFSNE_sfc_rhum_087.txt.gz
RH
92 90 90 89 88 86 88 88 92 93 85 84 87 77 80 83 87 84 87 87 85 85 85 85 85 86 87 87 86 85 85 86 85 85 83 79 78 76
85 86 85 82 82 80 86 82 86 87 92 89 91 81 78 76 84 85 87 86 84 82 81 80 80 80 80 82 83 82 81 80 79 78 77 75 72 70
73 76 76 75 77 78 80 80 82 87 96 95 91 82 85 83 80 80 82 85 87 80 80 80 79 77 77 76 76 76 76 74 72 71 70 70 70 67
73 74 74 72 78 77 81 83 85 88 88 98 90 86 84 78 77 81 74 65 74 68 73 72 71 71 72 72 70 69 67 66 62 61 61 59 58 58
73 73 72 73 79 80 83 85 85 79 85 84 92 82 86 85 80 71 67 69 46 50 53 62 67 69 66 66 62 60 60 58 58 62 63 63 62 60
73 71 72 76 82 90 88 84 79 83 83 84 79 84 77 73 68 69 70 60 60 41 49 50 50 50 52 56 60 67 67 66 64 58 59 61 60 60
82 78 79 78 74 71 72 73 71 72 81 85 85 86 76 68 68 62 65 61 63 62 60 53 56 56 53 44 46 52 56 56 55 56 58 59 58 59
99 94 84 79 74 70 69 70 66 68 78 93 87 64 60 60 58 68 77 82 82 66 66 60 57 58 59 61 64 65 62 59 58 57 58 60 54 58
94 82 63 60 58 64 63 65 66 62 59 58 57 59 58 66 90 90 76 80 73 67 67 68 58 61 62 48 59 62 63 64 63 63 62 63 59 57
62 59 56 55 56 51 54 70 68 65 63 47 61 61 66 64 66 77 74 72 71 65 69 90 67 69 66 64 55 59 69 68 63 62 61 63 63 65
53 54 53 55 66 53 66 71 58 68 67 66 69 67 64 64 68 74 90 91 86 68 74 82 83 84 77 73 67 72 66 65 67 66 64 62 64 65
56 60 63 56 61 58 55 56 60 59 64 64 67 67 64 75 68 70 87 97 95 91 84 94 90 93 96 80 83 77 75 57 57 62 65 67 67 80
50 52 57 56 54 62 53 56 63 59 70 59 58 62 65 69 72 71 77 92 89 89 78 92 88 84 85 88 93 92 84 81 84 84 68 69 69 74
48 45 48 62 55 57 64 58 68 67 58 58 64 72 79 86 89 90 85 90 84 91 90 96 97 95 96 86 88 94 94 95 96 92 86 76 73 73
50 46 49 64 63 59 58 57 63 78 63 72 82 90 92 97 96 95 94 91 94 91 90 96 97 94 96 95 92 88 86 91 84 91 83 87 92 86
57 68 64 61 53 56 53 62 74 69 68 80 86 88 94 95 92 87 91 91 94 90 89 93 96 96 95 92 90 91 82 94 92 94 92 83 78 85
61 62 67 60 58 58 59 59 66 65 76 78 88 90 89 91 90 82 83 89 96 90 91 92 90 90 90 90 93 87 89 91 90 85 83 84 83 87
61 58 60 59 53 47 49 54 61 63 74 84 89 92 93 94 94 89 91 94 94 92 91 92 94 94 88 84 84 93 92 93 94 82 83 94 91 86
66 66 69 69 67 67 72 79 81 76 89 93 92 93 94 94 88 94 94 88 89 83 91 92 96 97 96 95 84 77 96 96 89 84 83 89 91 85
74 77 77 75 76 76 77 80 81 82 86 88 90 91 94 94 95 93 93 93 92 91 92 91 93 95 95 92 94 87 77 96 94 92 90 86 82 71
78 79 76 78 79 80 80 82 83 85 86 88 88 89 91 93 91 89 90 76 80 89 91 91 90 71 95 96 96 86 81 72 77 89 94 94 89 79
68 74 75 79 81 84 85 85 87 86 87 88 89 89 89 90 91 89 87 88 86 88 88 92 93 93 96 94 90 85 82 78 71 69 69 81 93 93
69 69 74 77 81 83 85 87 88 88 88 88 88 89 89 91 87 86 86 86 86 88 88 88 89 88 92 92 88 91 89 82 80 83 81 66 67 74

GFSNE_sfc_rhum_090.txt.gz
RH
96 95 94 92 92 94 96 96 95 97 97 98 98 88 88 90 89 89 90 84 82 82 83 83 83 84 86 86 87 86 85 86 86 85 82 83 82 80
92 92 91 90 90 91 93 94 95 96 96 98 96 89 85 82 86 90 89 86 82 80 80 81 80 80 80 81 84 85 84 81 78 76 75 75 75 75
83 85 86 85 89 87 88 88 91 94 98 99 96 89 89 86 83 89 86 88 88 79 78 77 77 76 76 76 76 76 75 74 72 70 69 68 68 68
88 89 87 84 92 90 95 93 94 94 96 98 95 93 90 82 86 90 81 74 78 68 72 72 71 71 72 72 70 69 68 67 63 62 61 60 59 62
87 86 82 90 93 94 94 94 93 90 93 94 96 91 91 94 91 86 83 84 53 55 55 62 67 69 68 66 65 64 62 61 61 65 66 65 63 62
82 82 84 88 94 94 93 91 89 93 93 94 91 93 93 85 84 80 83 74 70 49 50 53 51 50 52 55 64 66 66 65 64 59 59 59 60 59
89 84 89 84 75 76 85 84 81 86 94 94 94 96 89 81 80 76 80 79 81 76 74 68 65 66 64 60 60 58 56 56 54 54 56 57 58 58
98 94 90 84 75 71 69 67 69 78 86 97 96 85 74 77 79 86 88 95 93 82 76 73 66 69 72 86 60 62 63 61 57 56 56 58 54 54
94 85 78 65 71 74 66 66 60 60 59 67 69 73 78 86 91 94 88 90 89 80 82 82 72 74 73 59 59 57 60 64 63 64 63 63 58 56
80 72 68 67 61 59 71 78 84 87 82 67 78 85 84 79 82 88 83 83 84 79 82 94 88 83 82 80 58 61 66 67 65 64 62 62 60 60
65 63 65 74 54 55 74 78 84 84 66 69 69 64 64 64 73 88 96 96 95 83 90 92 94 93 89 85 79 66 66 64 65 65 65 63 60 65
64 69 62 73 67 52 72 72 73 75 71 77 79 69 76 76 67 82 95 98 98 97 92 96 97 97 97 92 89 85 84 65 56 57 60 64 66 83
67 75 79 57 57 60 53 68 68 80 71 70 73 78 80 82 84 85 90 96 96 98 86 95 98 94 96 95 97 96 89 87 88 88 69 69 68 72
56 54 57 59 57 59 62 62 64 66 71 70 75 86 89 95 96 97 92 94 95 94 95 95 98 98 97 92 94 96 97 94 97 98 92 74 73 73
56 53 59 63 65 60 61 56 65 88 75 84 93 95 96 98 98 97 97 92 93 92 94 95 98 99 98 97 95 90 83 96 88 96 86 84 86 81
55 67 64 73 68 74 66 66 83 90 85 92 95 97 98 99 98 98 97 94 97 97 93 94 95 98 100 99 95 90 84 95 97 94 86 84 80 76
80 77 80 78 76 72 72 71 79 86 90 90 94 96 96 97 97 96 96 95 98 98 96 95 94 93 94 95 96 89 87 95 95 93 89 89 83 79
74 73 79 81 74 65 70 73 74 76 85 90 95 95 95 95 95 97 96 96 97 97 94 97 97 98 96 89 81 94 95 96 96 92 85 92 90 90
73 82 79 79 77 74 75 80 83 82 90 91 92 94 94 94 88 96 96 96 97 97 96 94 96 98 97 93 90 64 97 99 98 98 96 95 92 87
82 84 82 84 86 85 84 86 90 93 90 90 94 94 95 95 96 96 96 96 95 96 97 98 98 98 96 94 95 90 79 99 99 96 94 93 88 76
82 86 84 88 86 86 86 87 85 86 88 91 91 92 92 94 94 94 93 83 88 94 95 96 91 75 92 98 97 88 89 72 76 92 98 97 92 83
79 82 83 86 86 88 88 87 89 86 88 91 90 92 92 93 92 93 93 93 91 93 95 97 96 98 97 94 92 90 82 80 74 68 68 76 96 96
75 75 79 84 86 86 89 89 88 88 87 89 91 92 92 94 90 90 91 92 93 96 96 96 98 98 89 92 88 92 92 90 86 85 83 71 70 70

GFSNE_sfc_rhum_093.txt.gz
RH
96 96 96 93 94 95 96 96 94 98 99 98 96 88 89 91 90 91 92 83 79 80 81 83 83 84 86 87 87 86 85 85 84 83 83 81 77 75
95 95 94 92 94 93 94 94 95 93 96 96 96 90 86 84 86 90 89 87 82 79 82 80 80 79 81 84 84 84 83 81 79 77 77 76 74 74
86 90 92 88 93 94 93 91 93 95 98 100 96 90 90 88 84 90 86 86 88 79 77 77 78 76 76 77 77 78 78 76 75 72 69 68 67 68
91 88 85 84 89 89 91 91 92 93 96 99 96 95 92 84 88 90 85 78 78 71 72 73 71 72 73 73 72 72 71 68 66 64 63 61 62 64
90 91 91 92 94 95 95 96 95 94 92 94 97 92 94 96 93 90 87 74 57 55 54 59 61 70 68 67 69 68 68 63 67 69 69 67 66 64
85 84 86 89 94 95 95 94 93 96 96 96 93 94 95 90 85 89 80 77 72 53 55 54 54 52 52 60 64 64 66 66 64 61 61 61 61 60
89 84 87 85 80 87 89 89 91 94 97 97 94 98 92 81 82 78 80 84 83 83 75 72 69 73 72 63 61 59 55 54 55 54 55 56 58 58
98 96 89 84 78 72 69 67 77 88 90 97 98 93 75 75 80 84 88 95 92 83 74 71 73 74 78 85 58 60 62 62 57 55 55 56 60 54
97 90 78 70 74 80 67 65 64 61 64 73 71 74 75 83 89 94 88 92 90 81 82 82 82 80 82 64 57 56 59 63 62 64 63 65 58 55
76 68 73 68 68 69 78 86 88 84 77 61 76 80 79 83 82 86 85 85 88 84 87 95 93 86 87 84 60 64 66 65 66 65 64 62 62 60
72 71 70 69 57 61 81 87 85 84 71 72 71 68 68 70 76 90 97 96 95 87 92 93 96 95 93 92 84 65 66 65 65 64 65 64 62 60
70 71 66 75 55 57 74 75 78 78 75 76 75 76 84 76 68 85 95 98 98 98 92 96 98 98 96 92 93 90 88 69 65 58 61 60 64 70
74 77 77 64 65 53 59 69 68 71 70 75 78 83 86 84 88 91 91 95 98 99 89 93 99 97 98 97 97 97 92 89 90 88 74 67 66 70
61 64 73 60 60 61 63 64 63 70 74 73 78 86 90 96 96 96 92 95 95 93 95 94 98 98 98 96 97 96 97 95 98 98 97 72 68 73
58 55 58 60 61 61 64 62 65 78 73 84 88 95 96 95 98 98 98 97 95 93 92 95 96 98 99 98 99 97 90 95 94 98 91 85 93 82
64 65 62 71 69 76 71 71 80 91 85 89 95 97 99 99 98 98 98 98 98 97 94 94 94 96 97 98 99 96 96 93 97 97 97 96 81 72
77 74 76 79 80 75 76 71 81 89 96 89 95 98 98 98 98 98 97 98 98 98 97 97 94 94 95 95 98 94 88 86 97 97 94 97 96 86
86 79 80 83 80 72 68 70 73 73 89 89 91 94 96 97 97 98 98 96 96 98 98 98 98 99 99 93 88 94 90 90 97 97 94 95 91 93
83 87 82 81 81 80 76 81 84 82 92 93 92 94 96 95 90 96 95 95 96 97 97 98 99 99 99 97 88 65 96 92 96 96 98 98 95 87
83 82 80 78 78 81 81 82 82 87 88 87 90 90 93 94 96 96 97 95 96 98 98 98 99 98 98 96 95 93 78 99 100 99 97 97 88 77
74 82 79 80 82 84 84 85 84 84 86 88 87 90 92 94 93 93 96 87 92 97 97 96 91 79 96 98 98 94 94 73 81 96 98 98 94 89
73 76 77 82 85 87 88 88 88 85 88 89 87 90 91 91 90 91 94 94 93 94 92 96 97 98 100 98 93 92 86 84 73 68 68 74 93 96
79 77 80 83 86 88 89 90 89 88 88 88 89 90 91 95 90 89 90 92 93 97 96 95 98 98 94 94 92 92 90 91 89 92 88 74 71 71

GFSNE_sfc_rhum_096.txt.gz
RH
96 96 97 96 96 97 97 96 97 98 99 98 97 89 90 92 88 90 90 84 79 80 81 81 82 84 87 88 88 87 89 90 88 86 82 80 76 74
97 96 96 94 94 95 95 96 96 95 98 96 97 91 87 86 86 91 87 88 82 80 79 80 79 80 84 85 86 86 84 82 81 79 78 78 74 72
93 94 96 93 96 94 93 93 95 96 98 100 96 91 91 90 88 91 88 83 88 78 77 76 77 77 77 77 78 80 78 78 77 74 71 69 68 68
92 91 91 89 93 90 93 93 95 94 96 99 97 96 92 87 87 88 86 63 79 73 74 74 73 74 74 74 73 72 70 69 68 67 66 64 65 64
92 92 92 90 91 92 94 95 95 92 94 94 98 94 94 96 94 92 85 72 55 56 54 55 67 70 70 73 72 72 67 69 71 72 72 69 68 66
90 88 87 89 91 95 96 95 94 96 95 94 94 95 90 95 92 92 86 77 72 55 60 62 61 56 55 66 63 65 66 67 64 64 62 63 63 61
88 84 87 88 86 87 92 94 95 96 98 98 95 94 95 93 85 84 81 83 82 79 72 72 70 76 82 72 66 58 54 54 56 55 56 57 58 57
97 96 91 87 80 74 70 71 85 94 95 98 99 95 87 78 82 81 87 95 90 81 71 73 76 79 79 82 56 59 60 61 56 54 55 56 59 56
99 94 80 74 77 78 70 73 69 68 77 90 91 84 76 76 86 90 84 89 87 81 79 82 87 82 85 69 58 57 57 62 62 64 64 67 60 55
85 80 72 66 68 74 77 84 87 80 71 60 72 71 74 81 78 83 83 87 86 87 87 95 95 88 90 86 70 65 66 63 66 65 66 63 63 62
74 68 67 68 62 64 83 88 90 86 71 70 69 67 69 71 78 85 95 95 95 88 93 92 96 95 94 94 85 67 66 66 64 63 64 65 63 60
75 75 68 69 58 61 82 81 81 81 81 76 81 81 81 76 72 81 92 97 98 98 93 95 98 98 96 92 94 91 88 72 70 62 65 60 61 80
72 76 78 69 64 55 67 77 72 72 68 71 76 86 82 84 86 90 88 95 98 99 91 93 99 98 98 97 97 97 91 83 87 87 73 67 65 69
68 72 76 68 64 62 62 62 59 68 78 75 78 85 88 93 94 94 91 94 94 93 95 94 98 97 99 98 97 95 97 98 98 96 97 75 68 67
59 59 63 67 63 65 62 63 63 78 74 84 86 94 93 95 97 98 97 96 97 96 95 96 96 99 98 98 98 98 95 96 98 98 95 96 93 86
65 78 68 70 72 73 70 70 84 79 77 83 90 93 96 98 98 98 98 99 98 97 96 95 96 96 99 96 98 98 98 98 98 98 98 98 94 88
79 81 78 80 84 81 83 80 80 88 96 88 90 94 96 98 97 98 98 99 98 98 96 97 97 95 96 95 99 97 98 93 88 97 96 97 98 96
84 78 75 78 80 80 75 77 76 78 91 95 92 93 96 97 97 99 98 97 97 98 99 98 98 99 97 94 90 97 95 87 88 98 98 100 99 93
88 96 89 84 82 83 83 84 82 81 91 92 92 91 94 96 92 97 97 96 96 97 96 97 99 98 100 99 91 71 97 97 98 100 98 99 97 92
90 94 91 88 85 85 87 87 86 90 88 88 92 92 92 92 94 94 96 95 95 97 97 99 98 97 96 96 95 93 80 97 99 100 99 97 89 76
74 84 84 83 83 84 84 86 86 86 89 88 87 89 89 90 91 90 91 87 90 96 96 96 91 81 95 98 99 98 93 74 84 96 97 99 94 91
71 74 74 82 85 87 87 88 89 86 88 88 85 87 88 89 88 87 89 93 89 92 93 95 97 98 100 96 93 93 89 90 74 68 70 80 97 98
85 80 79 80 84 85 88 90 90 88 87 87 88 87 88 92 86 84 85 88 88 93 94 97 98 99 97 96 92 93 92 91 91 92 88 76 73 72

GFSNE_sfc_rhum_099.txt.gz
RH
97 96 98 97 97 97 99 99 98 98 99 98 97 91 90 90 87 91 90 86 81 80 80 79 81 84 85 87 88 90 91 92 89 87 86 82 80 76
97 96 96 97 96 96 97 98 98 98 98 96 98 94 88 86 86 89 87 87 82 79 77 77 78 80 83 85 86 87 85 86 86 85 84 82 76 74
95 95 96 96 97 96 96 95 97 98 98 99 97 93 94 93 89 89 84 85 89 79 76 74 76 76 76 78 80 80 81 79 78 76 74 71 70 70
93 94 94 92 94 94 96 95 97 96 96 99 98 98 94 89 90 90 77 67 78 73 70 75 72 73 74 72 73 72 73 72 72 71 69 69 67 65
93 94 93 92 92 94 94 96 96 94 95 95 99 94 95 93 92 89 77 73 55 57 59 62 71 71 76 76 76 73 74 75 76 75 73 72 71 69
92 92 91 92 92 93 95 96 94 96 96 94 94 96 90 92 89 96 85 77 72 56 63 67 69 63 66 65 66 67 68 69 68 67 65 65 64 63
91 84 87 88 86 87 90 94 96 97 98 98 96 96 93 92 96 92 87 82 80 77 71 73 71 78 83 74 70 61 56 57 59 58 58 58 58 57
96 94 92 87 84 80 79 79 87 96 97 98 96 95 88 92 84 87 91 92 89 81 68 74 75 78 77 76 58 59 61 62 56 54 54 55 59 57
98 95 82 78 79 78 80 78 73 73 81 92 94 94 85 82 88 91 83 87 86 79 75 76 85 79 85 73 63 60 56 63 62 64 66 66 59 56
91 86 78 72 73 68 72 80 83 76 69 65 86 84 75 82 78 80 81 84 84 84 83 95 93 84 90 88 74 66 65 61 65 64 68 66 65 64
78 70 72 67 62 64 76 87 91 89 69 66 66 67 69 71 78 81 88 91 91 84 88 87 95 94 93 94 86 66 66 65 65 64 65 65 64 64
68 68 69 66 60 59 85 86 90 90 81 84 90 86 78 75 69 75 90 95 97 97 88 92 97 97 97 94 94 91 87 75 71 64 66 62 62 86
77 79 81 71 66 57 70 81 76 79 78 76 83 88 86 86 87 87 84 95 97 98 88 92 99 99 98 98 97 97 91 83 85 88 76 68 66 71
71 75 78 68 69 66 63 71 65 68 79 75 79 87 88 92 92 93 88 91 89 92 93 93 98 97 99 98 97 96 98 98 98 96 97 79 66 66
67 66 65 69 67 67 63 64 60 82 78 83 87 94 94 95 96 97 96 93 94 96 95 95 96 100 98 98 98 98 95 97 97 98 98 98 97 94
67 77 67 65 71 77 73 74 87 80 78 84 89 92 94 98 98 98 98 97 97 97 96 96 95 95 99 99 98 98 98 97 98 98 98 98 93 91
81 88 84 82 87 88 87 83 84 89 90 84 90 91 92 95 97 98 98 99 98 98 97 97 97 95 96 95 99 96 96 99 98 97 97 99 96 93
87 82 78 82 84 86 83 82 83 81 95 96 91 91 94 97 97 99 98 98 98 98 98 98 98 98 96 93 90 97 99 97 88 87 98 100 95 94
93 94 91 82 79 81 83 86 86 87 94 94 94 94 95 94 90 98 98 98 98 98 96 96 98 97 99 97 88 78 96 98 97 95 98 98 99 96
92 94 96 95 90 89 90 90 89 92 90 89 92 93 94 93 96 95 96 95 96 96 98 98 98 97 94 95 95 94 81 97 98 99 99 97 90 76
83 92 92 93 92 91 89 89 88 89 89 89 89 90 92 93 92 90 90 86 89 95 96 94 91 80 96 97 98 97 90 78 84 94 97 98 98 95
75 78 78 88 88 90 90 90 91 89 89 91 87 88 88 89 87 86 86 89 86 90 91 93 98 98 99 96 93 94 97 88 76 72 78 82 95 98
98 97 88 85 86 86 89 90 90 89 89 88 89 87 86 88 84 81 83 86 85 89 90 96 98 99 96 95 92 94 97 96 90 90 86 73 71 72

GFSNE_sfc_rhum_102.txt.gz
RH
97 97 98 97 97 98 98 99 99 92 99 98 98 92 90 91 89 87 92 84 79 79 79 78 80 83 86 88 89 93 90 86 86 82 79 80 78 77
98 97 96 97 97 97 98 98 99 99 97 96 98 95 92 88 90 89 89 88 80 77 76 77 77 78 82 86 87 89 89 91 89 86 84 82 79 76
94 96 95 95 98 97 97 97 98 99 99 99 97 95 95 94 90 88 85 88 90 79 76 76 76 76 78 79 81 84 83 86 87 86 84 82 78 75
93 94 94 95 94 95 96 96 97 97 97 99 98 98 95 92 92 90 68 65 76 71 74 74 74 74 76 76 74 76 76 76 75 74 74 73 73 70
94 94 94 94 94 95 94 96 97 96 96 96 99 95 96 94 93 84 71 64 53 62 65 71 71 75 75 75 77 75 77 79 78 77 76 74 72 69
92 92 92 93 94 94 93 92 94 97 98 96 96 97 93 93 89 88 78 78 71 57 64 70 74 70 68 67 66 69 71 71 70 70 69 68 68 67
92 90 90 89 85 87 90 93 94 96 98 99 98 98 96 95 95 88 81 83 80 75 71 72 70 76 80 76 69 60 59 63 63 63 62 61 60 57
95 93 90 84 85 82 80 81 88 95 98 99 99 97 93 91 84 84 90 87 84 80 69 70 71 74 74 74 57 59 60 58 56 56 57 58 61 58
97 96 84 78 78 83 78 79 78 76 82 91 94 92 90 83 88 91 86 89 85 81 68 73 78 75 80 72 64 61 58 62 63 62 67 63 61 60
92 90 83 75 75 69 72 80 80 78 67 70 87 88 83 87 79 82 82 86 86 83 78 92 88 79 82 82 76 65 60 66 65 69 69 69 68 67
82 75 75 73 65 68 71 79 81 84 70 66 67 67 67 73 76 79 89 89 86 80 83 85 92 89 87 87 84 65 62 63 68 68 67 67 65 68
75 69 76 69 61 61 75 80 87 90 89 91 92 90 80 76 69 75 87 91 94 92 86 91 93 92 96 91 90 87 86 74 69 63 66 62 67 87
75 75 77 72 68 62 78 88 80 85 80 91 88 91 88 89 88 84 83 94 96 96 84 89 98 95 96 96 91 92 91 83 86 86 71 69 66 78
69 73 75 66 70 68 64 72 68 69 81 81 86 90 90 91 92 92 88 91 90 92 89 92 96 96 97 97 92 93 97 97 98 96 96 78 68 66
67 65 64 65 65 72 65 64 61 84 83 85 89 96 94 95 97 98 96 93 95 96 92 93 95 97 97 97 95 96 96 96 98 98 97 98 96 93
76 76 65 65 69 79 76 78 89 87 87 92 94 96 96 99 98 98 97 98 97 98 96 96 93 95 99 98 97 98 96 95 98 99 95 94 88 88
80 83 80 84 85 91 92 87 88 91 94 88 93 94 94 97 96 97 97 99 98 98 98 98 96 93 96 95 100 96 96 98 97 97 95 98 94 89
91 88 90 89 91 90 88 88 89 84 97 96 94 91 91 95 96 99 98 98 98 98 98 98 99 98 96 93 88 96 99 98 98 94 90 98 96 92
94 97 96 89 89 91 91 90 91 89 93 94 95 95 95 95 89 97 98 98 98 97 97 97 98 97 99 96 88 80 94 98 97 90 88 93 94 94
95 97 97 96 92 88 88 91 91 94 93 91 94 94 96 94 97 96 96 95 96 98 98 98 97 96 93 93 92 91 82 98 97 99 100 97 90 77
90 93 93 95 96 94 93 93 92 92 92 91 91 91 94 93 93 92 92 88 90 94 95 92 90 80 94 94 96 91 92 83 87 96 97 98 97 94
86 90 86 92 94 94 94 94 94 92 92 93 90 90 89 90 88 87 87 90 88 90 91 89 97 97 98 95 89 88 94 92 77 78 77 76 94 95
98 98 97 97 98 98 96 94 93 91 92 90 91 90 89 90 86 82 82 85 83 86 88 93 96 98 94 94 90 91 94 92 91 90 86 73 78 80

GFSNE_sfc_rhum_105.txt.gz
RH
86 88 86 86 86 86 86 91 86 83 82 87 86 83 83 88 86 81 88 87 77 76 77 78 77 80 84 87 90 94 85 81 86 87 87 88 80 76
84 84 84 82 81 82 84 84 90 89 90 88 92 89 87 85 88 82 87 87 77 76 76 77 76 78 82 85 88 90 94 88 86 84 80 81 79 77
77 80 83 83 81 82 85 84 87 94 98 97 94 90 94 91 87 83 85 87 83 77 76 75 76 76 78 81 84 87 89 90 91 86 83 80 77 74
75 77 80 81 82 81 82 84 88 89 97 98 96 97 93 91 90 84 73 62 73 74 76 75 75 78 77 78 80 84 84 89 88 87 87 85 81 76
80 80 81 81 82 81 82 82 84 83 87 91 96 90 93 93 91 77 68 61 57 68 73 74 76 75 75 76 76 77 80 81 82 82 81 77 73 70
81 81 79 80 81 85 85 83 84 88 89 95 93 94 90 91 88 87 77 68 64 55 63 72 76 72 69 66 69 73 74 74 74 75 74 74 74 71
82 77 80 83 84 82 80 80 84 87 90 98 97 96 96 96 95 86 79 71 64 54 52 51 56 57 61 65 64 62 65 66 66 66 65 64 64 65
88 85 81 80 80 81 78 78 83 86 97 99 98 96 91 91 86 85 82 77 74 59 52 55 54 57 57 61 58 60 59 56 59 58 59 59 59 63
91 90 80 74 74 76 76 78 76 77 83 88 94 92 90 87 90 90 81 75 63 64 55 56 53 55 59 61 64 59 60 61 59 60 60 61 61 61
83 83 80 73 71 67 66 74 76 77 72 68 85 85 82 77 73 81 74 71 69 69 59 68 61 58 60 63 79 65 58 64 66 69 68 66 63 63
78 74 73 72 66 68 64 71 70 77 74 67 66 70 67 76 70 71 78 79 70 64 64 65 74 72 70 66 70 65 66 68 67 67 68 68 67 70
74 68 74 74 63 64 71 64 68 68 76 74 71 76 74 70 69 64 75 94 82 81 72 82 80 78 85 75 76 72 70 65 66 65 65 67 75 65
73 71 67 68 70 64 72 67 63 65 73 73 73 75 74 71 68 69 70 95 94 89 74 82 90 83 85 84 78 76 73 70 69 71 71 68 73 69
68 58 56 64 65 70 65 74 68 70 69 68 70 77 78 78 82 82 79 82 80 96 84 93 93 89 89 85 79 79 79 77 82 84 83 68 69 67
61 58 62 64 64 66 70 66 64 72 67 68 69 80 84 87 92 91 90 91 97 95 91 87 91 93 90 86 81 79 83 84 85 87 82 83 81 75
79 76 67 64 68 71 72 70 72 71 70 71 71 73 84 89 87 87 90 89 87 88 93 90 90 90 91 85 85 81 81 86 86 86 81 81 74 70
78 73 70 69 68 70 76 73 74 77 79 73 78 79 78 84 86 90 90 91 90 89 88 89 86 84 86 90 91 84 79 83 86 87 82 85 80 72
82 76 73 70 68 64 72 76 76 77 81 84 81 81 83 86 87 91 92 92 91 88 87 88 93 93 90 82 85 85 84 85 86 86 85 89 85 73
84 84 82 80 76 75 76 81 82 81 92 91 91 90 89 88 87 89 91 91 91 89 90 88 92 90 89 80 68 79 88 86 85 85 80 84 84 75
86 87 87 86 83 82 82 85 85 84 85 86 90 92 92 92 92 91 90 92 88 88 91 92 92 92 91 86 82 76 84 89 85 86 87 82 79 76
84 85 84 87 89 91 90 90 90 90 91 91 89 91 91 93 92 90 88 84 85 88 91 90 90 79 88 86 89 79 73 83 82 88 89 85 78 68
88 95 91 88 91 94 94 94 93 92 93 93 92 91 90 90 88 86 83 86 82 87 88 85 89 90 96 93 87 81 78 70 78 83 77 69 86 86
96 96 98 98 98 99 99 98 97 95 93 92 92 90 90 92 85 81 80 80 80 84 84 86 91 90 91 92 89 87 84 82 70 77 80 77 78 77

GFSNE_sfc_rhum_108.txt.gz
RH
80 73 68 67 70 69 70 77 75 68 56 61 68 71 70 74 82 78 83 86 78 78 76 75 76 78 81 86 88 91 94 82 79 82 85 86 85 83
67 67 67 67 67 66 68 65 74 80 80 68 76 73 78 77 84 78 85 87 78 75 75 75 76 78 80 83 90 91 94 87 84 83 84 87 90 86
62 61 64 64 62 63 66 68 73 81 88 90 83 82 89 87 85 80 86 87 88 78 75 74 75 76 78 81 88 91 92 94 88 88 85 85 82 79
57 59 60 65 68 66 65 69 74 78 89 94 92 93 92 89 87 83 76 69 76 82 74 75 78 77 78 79 85 89 94 93 94 91 86 81 78 76
60 62 66 67 68 66 70 72 71 68 79 93 94 90 91 92 88 75 71 70 65 74 77 79 76 74 75 77 78 84 86 90 91 93 92 89 85 79
65 65 64 66 68 73 73 72 68 69 71 79 90 92 87 89 87 86 82 72 71 58 72 77 72 73 69 68 72 76 76 78 82 83 82 84 85 78
70 65 69 76 82 76 67 67 68 72 74 85 96 96 96 96 97 90 88 78 67 66 62 50 55 51 52 54 59 66 69 70 70 70 70 72 72 71
74 72 69 78 74 79 79 77 79 77 86 93 99 98 92 90 87 88 86 84 84 66 57 50 44 48 49 52 59 60 60 62 63 63 62 62 65 68
76 76 70 65 70 70 76 74 74 75 80 86 93 90 90 87 92 94 85 85 80 65 52 56 49 53 62 63 66 57 59 58 57 59 60 60 62 66
67 68 68 67 68 66 62 69 69 69 74 61 79 83 84 83 85 87 83 76 67 56 54 71 57 56 53 53 75 65 60 63 63 66 62 63 64 63
66 68 69 68 66 72 63 64 55 67 74 73 68 70 74 75 72 71 82 85 78 66 61 60 63 62 58 58 65 71 62 65 68 69 69 69 70 65
66 66 76 69 68 70 66 58 55 54 70 68 66 68 66 71 68 63 76 100 81 77 59 76 76 74 83 67 71 70 67 66 68 69 68 67 71 61
68 65 66 70 73 66 62 58 57 50 68 60 57 59 61 62 58 58 62 96 99 92 64 81 96 80 88 82 75 77 73 73 72 73 70 66 72 66
65 58 56 65 66 70 65 67 68 65 56 56 59 62 65 71 74 74 74 76 76 97 74 98 100 96 98 86 80 78 79 78 83 88 87 70 71 72
60 52 51 59 60 60 71 71 68 63 58 59 62 72 78 85 98 93 92 97 100 95 97 100 100 99 99 97 84 77 86 85 85 90 85 87 83 73
77 72 64 60 58 56 65 69 63 59 60 64 63 65 77 89 86 86 93 91 93 92 98 98 100 99 92 86 85 81 80 91 88 87 82 79 70 64
80 78 70 64 60 55 59 59 62 65 70 66 73 73 73 80 83 89 93 95 95 91 90 88 83 84 87 94 88 80 75 82 87 88 81 86 80 69
77 74 72 68 64 54 52 55 60 65 67 75 79 80 84 87 89 92 94 94 92 88 87 88 89 87 85 80 83 82 80 82 86 86 82 85 83 70
79 79 78 70 66 65 64 66 74 69 99 97 94 96 96 95 92 90 90 88 88 87 89 90 90 88 86 75 69 80 91 84 83 82 78 79 80 72
87 85 85 77 72 73 76 83 84 82 89 93 98 99 100 100 96 94 92 89 86 86 88 93 92 91 89 88 84 79 82 91 82 81 84 75 72 70
89 88 84 86 80 83 85 88 93 99 100 100 98 98 98 99 95 93 90 82 84 86 89 88 90 78 98 90 88 73 73 84 82 91 88 82 78 68
90 89 90 93 98 99 99 99 100 99 100 100 99 100 99 97 93 88 82 87 83 86 87 89 94 95 94 93 87 79 72 72 78 81 76 74 89 87
96 94 99 99 100 100 100 100 100 100 99 100 100 100 96 95 86 84 82 79 80 83 83 87 87 90 89 92 88 85 80 79 71 74 86 81 79 71

GFSNE_sfc_rhum_111.txt.gz
RH
82 81 75 74 72 72 74 77 83 82 70 71 77 75 75 80 88 79 88 89 80 79 77 76 77 78 77 79 84 88 91 94 89 86 85 82 84 80
72 72 71 68 71 73 78 74 76 83 84 76 82 78 77 76 87 82 86 87 81 75 76 76 76 77 78 79 84 89 92 95 82 82 80 80 84 83
67 66 67 67 69 67 72 75 77 85 94 87 90 86 88 87 88 84 87 90 90 83 75 74 77 76 77 78 84 90 93 97 88 81 82 84 89 94
63 64 65 64 73 70 72 75 76 79 95 88 93 94 92 90 89 86 74 67 85 88 79 75 77 76 77 78 83 89 93 96 96 94 92 93 88 86
62 63 63 66 73 74 75 79 80 69 76 90 95 91 95 95 88 76 74 74 69 74 77 79 75 74 73 75 79 84 90 93 95 96 94 91 86 83
67 66 64 66 70 80 81 81 74 76 73 76 79 94 90 92 89 88 84 77 78 59 76 79 73 70 67 66 72 76 81 87 90 91 93 94 94 89
73 68 73 79 82 82 72 74 72 74 73 87 88 98 98 98 98 92 92 84 77 74 72 68 71 67 63 55 61 68 71 73 74 79 81 83 84 84
78 74 74 82 78 78 79 77 81 83 83 94 97 99 96 94 93 96 92 91 93 76 74 72 59 68 66 71 60 61 63 65 66 67 68 72 76 79
79 79 72 65 73 74 79 74 74 74 78 87 94 96 95 92 96 97 92 91 90 76 74 79 66 68 74 69 75 62 60 59 61 63 63 66 74 75
70 69 70 68 69 69 66 77 75 70 76 68 75 87 87 86 89 91 91 84 73 67 68 92 74 72 72 76 72 64 60 62 62 63 61 64 69 66
65 68 70 72 70 76 69 80 65 68 71 75 70 70 78 81 84 88 92 91 92 81 72 81 82 82 77 77 82 69 62 63 68 68 66 66 66 64
68 68 74 68 71 75 75 71 73 64 74 80 78 75 75 77 73 81 93 100 99 94 80 94 93 94 96 84 88 86 88 71 68 69 69 70 72 77
75 71 70 77 78 70 67 69 70 60 68 74 70 73 76 76 76 76 82 100 100 99 78 97 99 96 98 96 96 94 91 86 86 83 67 69 73 71
78 66 66 72 72 73 70 64 65 64 69 70 74 76 84 92 92 94 92 93 96 99 86 99 99 98 99 97 96 96 96 96 97 98 98 75 69 72
77 61 58 63 62 66 69 72 70 80 74 78 86 93 95 99 98 98 98 99 96 97 98 99 98 100 100 100 96 96 97 97 98 98 99 98 97 93
81 75 65 62 58 58 66 80 84 77 77 86 88 92 97 98 97 97 98 98 98 99 97 97 98 98 98 98 97 96 96 98 97 97 97 97 90 87
89 89 85 79 76 71 72 72 78 81 89 86 92 94 92 96 96 98 98 98 98 98 98 98 92 93 97 97 98 95 95 97 97 97 95 97 96 89
87 86 84 82 79 73 68 71 76 77 88 93 94 95 95 96 97 98 98 97 97 97 97 98 97 96 96 94 84 96 94 95 97 96 96 97 96 90
90 86 85 86 85 87 85 87 90 89 97 97 97 97 98 98 93 97 96 96 95 96 97 96 96 97 98 96 97 79 95 93 96 96 94 93 96 94
90 91 90 88 89 91 92 94 94 95 97 96 97 97 98 97 98 96 95 94 93 94 95 96 96 94 94 95 95 96 83 96 94 95 96 92 88 73
96 94 96 96 94 95 96 96 97 96 96 97 96 96 96 96 95 93 93 84 87 93 93 93 91 78 96 96 96 92 95 85 89 94 96 96 96 95
96 95 96 97 98 99 100 100 100 98 99 98 96 96 95 95 95 93 92 92 90 89 90 93 97 95 96 92 91 85 93 94 84 82 81 80 94 96
98 96 97 98 100 100 100 100 100 100 100 100 100 99 99 98 94 92 89 87 86 88 88 90 96 96 93 92 90 91 87 87 90 93 93 80 77 77

GFSNE_sfc_rhum_114.txt.gz
RH
97 94 93 91 87 89 89 90 93 95 89 94 96 94 95 93 87 84 91 88 80 76 76 74 76 76 76 75 77 80 86 89 93 92 86 84 79 82
95 94 87 86 87 86 92 91 93 95 94 95 97 93 91 91 90 87 88 89 85 75 76 76 77 77 77 77 79 83 88 92 95 87 82 79 80 84
85 85 84 82 88 90 90 89 91 94 95 95 97 95 94 95 90 87 88 90 93 85 76 75 77 77 77 78 80 86 90 94 96 83 82 83 82 84
78 76 76 75 83 84 87 88 90 89 95 96 97 98 95 93 90 88 75 70 90 88 81 77 76 75 75 77 79 87 91 94 97 98 89 85 86 89
74 74 77 80 83 88 89 91 91 83 87 92 96 96 98 96 89 79 77 76 68 73 75 78 76 73 71 73 76 81 89 93 95 96 97 96 95 92
77 76 76 78 83 89 89 89 86 89 82 84 85 98 95 96 92 92 88 80 80 60 74 83 74 62 58 62 70 75 84 88 92 94 96 97 95 90
84 79 86 85 84 85 84 90 88 89 84 91 93 99 99 99 99 95 96 88 81 79 79 68 78 69 70 72 69 70 73 79 86 90 92 92 94 94
88 85 87 85 83 79 80 78 86 92 88 97 97 96 94 96 95 98 96 95 97 81 78 75 60 70 81 88 61 62 65 68 70 80 88 89 91 85
90 90 84 78 83 91 82 77 78 75 81 95 92 88 97 94 96 98 96 94 93 80 76 84 67 74 83 82 75 64 61 62 64 65 73 85 83 82
86 86 85 85 83 80 81 86 84 81 87 77 82 91 91 88 91 92 94 89 76 73 73 94 74 82 84 90 69 64 60 61 63 61 63 73 79 76
78 82 84 85 77 73 80 86 80 77 73 74 73 70 71 80 86 92 94 93 93 83 74 83 82 89 88 89 92 70 61 63 67 64 66 69 68 69
83 85 75 80 74 77 83 83 84 79 82 84 85 80 79 80 81 88 96 99 99 95 83 89 96 96 96 93 94 93 93 68 69 69 70 69 70 84
88 87 89 77 74 75 75 78 78 72 70 86 86 88 90 87 88 84 90 100 100 99 87 97 99 98 95 98 98 97 94 91 92 88 68 70 72 78
91 84 82 74 78 78 75 67 65 65 83 87 85 88 92 96 98 98 97 97 98 98 90 98 99 97 99 98 98 98 98 98 98 98 98 76 69 71
88 75 75 74 74 73 69 69 70 88 86 88 95 96 98 99 99 99 99 96 93 99 98 99 99 99 98 99 98 98 99 98 99 99 99 98 96 93
82 80 65 65 64 70 69 75 92 92 92 95 95 98 100 100 99 99 99 100 99 99 97 99 100 98 99 99 98 98 98 98 100 99 99 99 94 91
93 90 88 89 86 78 81 85 94 93 94 95 97 97 98 99 99 99 99 99 99 99 100 99 96 95 97 97 98 97 98 99 99 98 98 99 98 92
96 98 96 91 88 83 78 82 83 86 95 95 97 96 96 97 98 99 99 99 99 98 99 99 99 96 96 90 85 96 97 98 99 98 98 99 97 94
97 96 95 92 90 90 88 84 85 89 93 94 95 96 98 97 92 99 99 99 99 98 98 98 99 98 98 95 93 79 94 97 99 100 98 97 98 94
98 94 92 91 90 89 90 90 93 96 95 96 98 98 98 99 99 99 99 98 98 98 98 99 98 96 95 93 94 96 84 97 95 97 99 98 89 77
96 96 95 94 94 93 91 90 93 95 96 98 98 98 98 99 98 98 97 89 93 97 96 96 93 82 97 97 97 94 96 86 89 94 97 98 98 95
97 96 96 96 96 96 97 97 98 96 99 98 98 98 98 98 98 97 97 97 94 96 93 95 96 98 100 97 94 94 96 97 88 82 82 81 94 95
96 96 97 98 99 100 100 100 100 100 99 99 99 99 99 98 97 98 97 95 95 95 95 97 98 99 94 95 93 94 95 94 95 98 94 81 81 81

GFSNE_sfc_rhum_117.txt.gz
RH
99 98 95 91 89 89 88 86 84 92 89 96 97 96 97 97 91 93 95 88 81 76 75 74 76 76 77 76 76 77 79 84 83 86 89 92 86 79
98 97 96 93 92 91 91 93 94 94 93 96 98 96 94 93 91 93 93 89 88 78 76 76 77 77 77 76 77 81 86 89 88 93 91 83 82 80
95 95 90 86 90 94 94 94 95 96 96 97 98 96 96 96 91 92 87 90 94 87 79 77 77 76 76 76 78 81 88 92 94 97 85 82 82 83
87 87 87 86 89 86 91 93 93 93 95 95 98 98 96 94 91 89 77 75 92 86 84 78 77 74 73 73 76 80 88 92 95 98 91 84 86 84
81 82 83 82 85 88 92 94 93 90 94 95 96 97 98 96 92 87 80 86 69 74 76 78 76 69 65 66 73 77 85 90 95 96 98 92 93 94
84 81 82 83 87 92 92 93 90 93 91 93 92 97 96 96 97 98 93 83 84 64 69 80 78 61 61 65 67 74 77 84 94 96 96 98 95 93
85 85 88 88 88 86 90 94 91 92 93 93 94 98 98 98 99 97 98 94 85 83 82 74 72 71 73 74 71 68 71 81 85 94 95 96 97 98
88 90 89 87 86 83 83 84 88 91 91 98 98 94 89 94 97 98 98 97 99 83 82 80 64 73 73 82 71 65 66 69 77 87 93 94 95 95
91 92 86 83 90 92 84 82 80 80 84 93 90 90 91 94 96 98 97 97 96 84 80 86 70 70 79 81 70 71 63 65 68 75 92 92 92 92
87 90 86 90 91 92 87 90 87 86 86 81 91 94 94 92 92 92 95 93 81 77 79 93 76 72 86 89 73 67 62 63 66 65 75 81 84 87
87 88 87 90 81 78 86 90 89 82 73 74 74 73 72 72 86 95 97 95 95 88 77 84 84 81 90 90 92 75 62 65 66 61 70 70 79 78
84 87 82 86 78 77 87 89 88 84 84 84 83 82 83 85 82 90 96 100 99 96 86 92 90 96 91 94 95 94 94 72 68 69 68 67 75 90
88 94 92 78 78 79 82 88 82 77 77 88 89 91 93 90 90 86 94 100 100 99 85 95 100 98 98 98 97 98 96 93 94 93 73 72 72 83
92 88 84 82 80 79 80 75 68 71 87 89 89 90 94 97 98 98 98 98 99 99 91 96 99 97 99 99 97 98 98 99 98 98 98 83 72 70
89 82 80 80 82 82 79 74 70 88 85 90 95 96 98 99 100 100 97 94 94 97 98 99 99 98 99 98 98 98 99 98 99 99 99 98 97 95
82 84 83 81 78 78 78 78 94 94 91 92 94 97 98 100 100 99 100 98 100 99 98 99 99 99 100 100 97 97 97 96 100 99 99 99 93 93
88 86 84 86 84 84 84 89 95 95 96 95 97 99 99 99 99 100 99 100 99 100 99 99 97 97 98 97 97 95 96 99 99 98 99 99 96 91
96 96 93 90 88 90 85 78 84 92 97 96 96 96 98 99 99 100 99 99 99 99 99 100 99 96 94 88 84 94 98 98 98 98 98 99 96 92
98 97 97 95 92 90 89 85 86 91 95 95 96 97 97 98 95 100 100 99 100 99 99 99 99 97 96 88 85 78 94 98 99 100 99 97 97 91
98 98 98 96 95 95 91 90 89 95 95 95 97 98 98 98 99 99 99 99 99 99 99 100 100 98 95 92 94 96 84 97 98 99 99 98 90 80
98 98 95 93 93 94 93 93 92 95 97 98 98 98 98 99 99 98 98 91 94 99 98 97 93 84 98 97 98 97 96 86 87 94 97 98 98 94
98 97 96 96 96 96 96 95 95 94 96 96 98 98 98 99 98 99 98 98 97 97 95 96 97 99 100 96 96 97 97 94 85 84 81 80 95 96
98 98 98 98 99 99 100 99 99 99 99 98 98 99 98 98 97 97 98 97 97 98 97 97 98 99 96 97 94 97 98 94 97 95 95 82 82 82